| time (UTC) | temp F | wind direction | speed MPH | gust MPH | rain 1hr in | rain 24hr in | rain mn in | humidity % | barometer mb |
| 20260904152019 | 84 | 240 | 2.0 | 5.0 | 0.00 | 0.00 | 0.00 | 71 | 1021.8 |
| 20260904151919 | 84 | 220 | 2.0 | 5.0 | 0.00 | 0.00 | 0.00 | 71 | 1021.9 |
| 20260904151820 | 84 | 172 | 2.0 | 5.0 | 0.00 | 0.00 | 0.00 | 71 | 1021.8 |
| 20260904151719 | 84 | 172 | 2.0 | 5.0 | 0.00 | 0.00 | 0.00 | 72 | 1021.8 |
| 20260904151619 | 84 | 172 | 2.0 | 5.0 | 0.00 | 0.00 | 0.00 | 72 | 1021.8 |
| 20260904151518 | 83 | 172 | 2.0 | 5.0 | 0.00 | 0.00 | 0.00 | 72 | 1021.9 |
| 20260904151419 | 83 | 198 | 2.0 | 5.0 | 0.00 | 0.00 | 0.00 | 72 | 1021.9 |
| 20260904151358 | 83 | 221 | 2.0 | 5.0 | 0.00 | 0.00 | 0.00 | 72 | 1021.8 |
| 20260904151346 | 83 | 190 | 2.0 | 5.0 | 0.00 | 0.00 | 0.00 | 72 | 1021.8 |
| 20260904151118 | 83 | 221 | 2.0 | 5.0 | 0.00 | 0.00 | 0.00 | 72 | 1021.8 |
| 20260904151023 | 83 | 221 | 2.0 | 5.0 | 0.00 | 0.00 | 0.00 | 73 | 1021.8 |
| 20260904150919 | 83 | 221 | 2.0 | 5.0 | 0.00 | 0.00 | 0.00 | 72 | 1021.8 |
| 20260904150818 | 83 | 221 | 2.0 | 5.0 | 0.00 | 0.00 | 0.00 | 72 | 1021.9 |
| 20260904150757 | 83 | 202 | 2.0 | 4.0 | 0.00 | 0.00 | 0.00 | 72 | 1021.8 |
| 20260904150743 | 83 | 224 | 2.0 | 4.0 | 0.00 | 0.00 | 0.00 | 72 | 1021.8 |
| 20260904150556 | 83 | 212 | 2.0 | 4.0 | 0.00 | 0.00 | 0.00 | 72 | 1021.8 |
| 20260904150544 | 83 | 202 | 2.0 | 4.0 | 0.00 | 0.00 | 0.00 | 71 | 1021.9 |
| 20260904150319 | 83 | 217 | 2.0 | 4.0 | 0.00 | 0.00 | 0.00 | 72 | 1021.8 |
| 20260904150219 | 83 | 217 | 2.0 | 6.0 | 0.00 | 0.00 | 0.00 | 72 | 1021.8 |
| 20260904150119 | 83 | 217 | 2.0 | 6.0 | 0.00 | 0.00 | 0.00 | 72 | 1021.8 |
| 20260904150053 | 83 | 216 | 2.0 | 6.0 | 0.00 | 0.00 | 0.00 | 73 | 1021.7 |
| 20260904150044 | 83 | 217 | 2.0 | 6.0 | 0.00 | 0.00 | 0.00 | 72 | 1021.7 |
| 20260904145819 | 83 | 235 | 2.0 | 6.0 | 0.00 | 0.00 | 0.00 | 72 | 1021.8 |
| 20260904145718 | 83 | 238 | 2.0 | 6.0 | 0.00 | 0.00 | 0.00 | 72 | 1021.8 |
| 20260904145620 | 83 | 240 | 2.0 | 6.0 | 0.00 | 0.00 | 0.00 | 72 | 1021.7 |
| 20260904145520 | 83 | 240 | 2.0 | 6.0 | 0.00 | 0.00 | 0.00 | 73 | 1021.7 |
| 20260904145417 | 83 | 232 | 2.0 | 6.0 | 0.00 | 0.00 | 0.00 | 73 | 1021.7 |
| 20260904145317 | 83 | 221 | 2.0 | 6.0 | 0.00 | 0.00 | 0.00 | 74 | 1021.7 |
| 20260904145216 | 83 | 225 | 2.0 | 5.0 | 0.00 | 0.00 | 0.00 | 74 | 1021.7 |
| 20260904145117 | 83 | 232 | 2.0 | 5.0 | 0.00 | 0.00 | 0.00 | 74 | 1021.7 |
| 20260904145054 | 82 | 232 | 2.0 | 5.0 | 0.00 | 0.00 | 0.00 | 73 | 1021.7 |
| 20260904145043 | 82 | 232 | 2.0 | 5.0 | 0.00 | 0.00 | 0.00 | 73 | 1021.7 |
| 20260904144810 | 82 | 232 | 3.0 | 5.0 | 0.00 | 0.00 | 0.00 | 73 | 1021.7 |
| 20260904144712 | 82 | 232 | 3.0 | 5.0 | 0.00 | 0.00 | 0.00 | 73 | 1021.7 |
| 20260904144613 | 82 | 233 | 2.0 | 4.0 | 0.00 | 0.00 | 0.00 | 73 | 1021.7 |
| 20260904144511 | 82 | 238 | 3.0 | 4.0 | 0.00 | 0.00 | 0.00 | 73 | 1021.5 |
| 20260904144410 | 82 | 277 | 2.0 | 4.0 | 0.00 | 0.00 | 0.00 | 72 | 1021.7 |
| 20260904144308 | 82 | 272 | 2.0 | 4.0 | 0.00 | 0.00 | 0.00 | 73 | 1021.5 |
| 20260904144208 | 82 | 198 | 2.0 | 4.0 | 0.00 | 0.00 | 0.00 | 73 | 1021.7 |
| 20260904144111 | 82 | 200 | 2.0 | 4.0 | 0.00 | 0.00 | 0.00 | 73 | 1021.5 |
| 20260904144008 | 82 | 205 | 2.0 | 4.0 | 0.00 | 0.00 | 0.00 | 75 | 1021.5 |
| 20260904143905 | 82 | 234 | 2.0 | 4.0 | 0.00 | 0.00 | 0.00 | 72 | 1021.5 |
| 20260904143801 | 82 | 231 | 2.0 | 4.0 | 0.00 | 0.00 | 0.00 | 73 | 1021.5 |
| 20260904143658 | 81 | 202 | 2.0 | 4.0 | 0.00 | 0.00 | 0.00 | 73 | 1021.5 |
| 20260904143559 | 81 | 200 | 2.0 | 4.0 | 0.00 | 0.00 | 0.00 | 73 | 1021.5 |
| 20260904143458 | 81 | 230 | 2.0 | 4.0 | 0.00 | 0.00 | 0.00 | 73 | 1021.5 |
| 20260904143357 | 81 | 219 | 2.0 | 4.0 | 0.00 | 0.00 | 0.00 | 74 | 1021.7 |
| 20260904143300 | 81 | 219 | 2.0 | 5.0 | 0.00 | 0.00 | 0.00 | 74 | 1021.5 |
| 20260904143155 | 81 | 219 | 2.0 | 5.0 | 0.00 | 0.00 | 0.00 | 73 | 1021.5 |
| 20260904143057 | 81 | 215 | 2.0 | 5.0 | 0.00 | 0.00 | 0.00 | 74 | 1021.5 |
| 20260904143051 | 81 | 206 | 2.0 | 5.0 | 0.00 | 0.00 | 0.00 | 74 | 1021.5 |
| 20260904143031 | 81 | 207 | 2.0 | 5.0 | 0.00 | 0.00 | 0.00 | 74 | 1021.7 |
| 20260904142837 | 81 | 200 | 2.0 | 5.0 | 0.00 | 0.00 | 0.00 | 75 | 1021.5 |
| 20260904142832 | 81 | 315 | 2.0 | 5.0 | 0.00 | 0.00 | 0.00 | 73 | 1021.5 |
| 20260904142818 | 81 | 206 | 2.0 | 5.0 | 0.00 | 0.00 | 0.00 | 73 | 1021.5 |
| 20260904142634 | 81 | 316 | 2.0 | 5.0 | 0.00 | 0.00 | 0.00 | 73 | 1021.5 |
| 20260904142509 | 81 | 207 | 2.0 | 5.0 | 0.00 | 0.00 | 0.00 | 74 | 1021.5 |
| 20260904142241 | 81 | 232 | 2.0 | 5.0 | 0.00 | 0.00 | 0.00 | 74 | 1021.5 |
| 20260904142142 | 81 | 232 | 2.0 | 6.0 | 0.00 | 0.00 | 0.00 | 75 | 1021.4 |
| 20260904142041 | 81 | 227 | 2.0 | 6.0 | 0.00 | 0.00 | 0.00 | 75 | 1021.4 |
| 20260904141940 | 81 | 212 | 2.0 | 6.0 | 0.00 | 0.00 | 0.00 | 74 | 1021.4 |
| 20260904141842 | 81 | 212 | 3.0 | 6.0 | 0.00 | 0.00 | 0.00 | 74 | 1021.4 |
| 20260904141738 | 81 | 196 | 3.0 | 6.0 | 0.00 | 0.00 | 0.00 | 74 | 1021.3 |
| 20260904141710 | 81 | 207 | 3.0 | 6.0 | 0.00 | 0.00 | 0.00 | 74 | 1021.4 |
| 20260904141704 | 80 | 224 | 3.0 | 6.0 | 0.00 | 0.00 | 0.00 | 74 | 1021.4 |
| 20260904141655 | 81 | 195 | 3.0 | 6.0 | 0.00 | 0.00 | 0.00 | 74 | 1021.4 |
| 20260904141629 | 81 | 195 | 3.0 | 6.0 | 0.00 | 0.00 | 0.00 | 74 | 1021.4 |
| 20260904141235 | 80 | 248 | 3.0 | 6.0 | 0.00 | 0.00 | 0.00 | 74 | 1021.4 |
| 20260904141130 | 81 | 235 | 3.0 | 6.0 | 0.00 | 0.00 | 0.00 | 74 | 1021.3 |
| 20260904141030 | 80 | 235 | 3.0 | 6.0 | 0.00 | 0.00 | 0.00 | 74 | 1021.4 |
| 20260904140928 | 80 | 218 | 3.0 | 6.0 | 0.00 | 0.00 | 0.00 | 74 | 1021.4 |
| 20260904140828 | 80 | 219 | 3.0 | 6.0 | 0.00 | 0.00 | 0.00 | 74 | 1021.4 |
| 20260904140726 | 80 | 227 | 3.0 | 6.0 | 0.00 | 0.00 | 0.00 | 74 | 1021.4 |
| 20260904140626 | 80 | 217 | 3.0 | 6.0 | 0.00 | 0.00 | 0.00 | 74 | 1021.4 |
| 20260904140526 | 80 | 210 | 3.0 | 5.0 | 0.00 | 0.00 | 0.00 | 74 | 1021.3 |
| 20260904140503 | 80 | 223 | 3.0 | 5.0 | 0.00 | 0.00 | 0.00 | 74 | 1021.4 |
| 20260904140453 | 80 | 219 | 3.0 | 5.0 | 0.00 | 0.00 | 0.00 | 74 | 1021.4 |
| 20260904140228 | 80 | 223 | 3.0 | 5.0 | 0.00 | 0.00 | 0.00 | 74 | 1021.4 |
| 20260904140153 | 80 | 217 | 4.0 | 5.0 | 0.00 | 0.00 | 0.00 | 73 | 1021.5 |
| 20260904140143 | 80 | 212 | 4.0 | 5.0 | 0.00 | 0.00 | 0.00 | 73 | 1021.4 |
| 20260904135920 | 80 | 266 | 4.0 | 5.0 | 0.00 | 0.00 | 0.00 | 73 | 1021.4 |
| 20260904135821 | 80 | 206 | 3.0 | 5.0 | 0.00 | 0.00 | 0.00 | 73 | 1021.4 |
| 20260904135721 | 80 | 224 | 3.0 | 5.0 | 0.00 | 0.00 | 0.00 | 73 | 1021.4 |
| 20260904135621 | 80 | 224 | 3.0 | 5.0 | 0.00 | 0.00 | 0.00 | 74 | 1021.4 |
| 20260904135514 | 80 | 213 | 3.0 | 5.0 | 0.00 | 0.00 | 0.00 | 74 | 1021.4 |
| 20260904135414 | 80 | 223 | 3.0 | 5.0 | 0.00 | 0.00 | 0.00 | 73 | 1021.4 |
| 20260904135403 | 80 | 212 | 3.0 | 5.0 | 0.00 | 0.00 | 0.00 | 73 | 1021.3 |
| 20260904135359 | 80 | 222 | 3.0 | 5.0 | 0.00 | 0.00 | 0.00 | 74 | 1021.3 |
| 20260904135345 | 80 | 224 | 3.0 | 5.0 | 0.00 | 0.00 | 0.00 | 74 | 1021.5 |
| 20260904135323 | 80 | 223 | 3.0 | 5.0 | 0.00 | 0.00 | 0.00 | 74 | 1021.4 |
| 20260904135151 | 80 | 197 | 3.0 | 5.0 | 0.00 | 0.00 | 0.00 | 74 | 1021.4 |
| 20260904134808 | 80 | 245 | 3.0 | 5.0 | 0.00 | 0.00 | 0.00 | 74 | 1021.3 |
| 20260904134710 | 80 | 219 | 3.0 | 5.0 | 0.00 | 0.00 | 0.00 | 74 | 1021.4 |
| 20260904134606 | 80 | 230 | 3.0 | 5.0 | 0.00 | 0.00 | 0.00 | 73 | 1021.3 |
| 20260904134509 | 80 | 230 | 3.0 | 5.0 | 0.00 | 0.00 | 0.00 | 73 | 1021.3 |
| 20260904134406 | 80 | 215 | 3.0 | 5.0 | 0.00 | 0.00 | 0.00 | 73 | 1021.3 |
| 20260904134307 | 80 | 221 | 3.0 | 5.0 | 0.00 | 0.00 | 0.00 | 73 | 1021.3 |
| 20260904134206 | 80 | 223 | 3.0 | 5.0 | 0.00 | 0.00 | 0.00 | 73 | 1021.3 |
| 20260904134139 | 80 | 234 | 3.0 | 5.0 | 0.00 | 0.00 | 0.00 | 73 | 1021.3 |
| 20260904134127 | 80 | 213 | 3.0 | 5.0 | 0.00 | 0.00 | 0.00 | 74 | 1021.3 |
| 20260904133902 | 80 | 226 | 3.0 | 5.0 | 0.00 | 0.00 | 0.00 | 73 | 1021.3 |
| 20260904133803 | 80 | 213 | 3.0 | 5.0 | 0.00 | 0.00 | 0.00 | 73 | 1021.3 |
| 20260904133702 | 80 | 226 | 3.0 | 5.0 | 0.00 | 0.00 | 0.00 | 73 | 1021.3 |
| 20260904133601 | 80 | 233 | 3.0 | 5.0 | 0.00 | 0.00 | 0.00 | 73 | 1021.3 |
| 20260904133532 | 80 | 199 | 3.0 | 5.0 | 0.00 | 0.00 | 0.00 | 73 | 1021.2 |
| 20260904133527 | 80 | 227 | 3.0 | 5.0 | 0.00 | 0.00 | 0.00 | 73 | 1021.2 |
| 20260904133517 | 80 | 233 | 3.0 | 5.0 | 0.00 | 0.00 | 0.00 | 73 | 1021.2 |
| 20260904133454 | 80 | 205 | 3.0 | 5.0 | 0.00 | 0.00 | 0.00 | 73 | 1021.2 |
| 20260904133054 | 80 | 213 | 3.0 | 5.0 | 0.00 | 0.00 | 0.00 | 73 | 1021.2 |
| 20260904132952 | 80 | 209 | 3.0 | 5.0 | 0.00 | 0.00 | 0.00 | 74 | 1021.2 |
| 20260904132853 | 80 | 214 | 3.0 | 5.0 | 0.00 | 0.00 | 0.00 | 74 | 1021.2 |
| 20260904132757 | 80 | 215 | 3.0 | 5.0 | 0.00 | 0.00 | 0.00 | 74 | 1021.2 |
| 20260904132743 | 80 | 223 | 3.0 | 5.0 | 0.00 | 0.00 | 0.00 | 74 | 1021.1 |
| 20260904132727 | 80 | 227 | 3.0 | 5.0 | 0.00 | 0.00 | 0.00 | 74 | 1021.2 |
| 20260904132450 | 80 | 221 | 2.0 | 5.0 | 0.00 | 0.00 | 0.00 | 73 | 1021.2 |
| 20260904132348 | 80 | 210 | 3.0 | 5.0 | 0.00 | 0.00 | 0.00 | 73 | 1021.2 |
| 20260904132241 | 80 | 206 | 3.0 | 5.0 | 0.00 | 0.00 | 0.00 | 73 | 1021.2 |
| 20260904132213 | 80 | 243 | 3.0 | 5.0 | 0.00 | 0.00 | 0.00 | 74 | 1021.2 |
| 20260904132205 | 80 | 241 | 3.0 | 5.0 | 0.00 | 0.00 | 0.00 | 74 | 1021.2 |
| 20260904131940 | 80 | 213 | 3.0 | 5.0 | 0.00 | 0.00 | 0.00 | 74 | 1021.2 |
| 20260904131844 | 80 | 212 | 3.0 | 5.0 | 0.00 | 0.00 | 0.00 | 74 | 1021.2 |
| 20260904131731 | 80 | 209 | 3.0 | 5.0 | 0.00 | 0.00 | 0.00 | 74 | 1021.2 |
| 20260904131631 | 80 | 208 | 3.0 | 5.0 | 0.00 | 0.00 | 0.00 | 74 | 1021.3 |
| 20260904131528 | 80 | 263 | 3.0 | 5.0 | 0.00 | 0.00 | 0.00 | 74 | 1021.2 |
| 20260904131428 | 80 | 267 | 3.0 | 5.0 | 0.00 | 0.00 | 0.00 | 74 | 1021.2 |
| 20260904131327 | 80 | 225 | 3.0 | 5.0 | 0.00 | 0.00 | 0.00 | 74 | 1021.2 |
| 20260904131220 | 80 | 219 | 3.0 | 5.0 | 0.00 | 0.00 | 0.00 | 74 | 1021.2 |
| 20260904131122 | 80 | 217 | 3.0 | 5.0 | 0.00 | 0.00 | 0.00 | 74 | 1021.2 |
| 20260904131021 | 80 | 231 | 3.0 | 4.0 | 0.00 | 0.00 | 0.00 | 74 | 1021.2 |
| 20260904130920 | 80 | 236 | 3.0 | 4.0 | 0.00 | 0.00 | 0.00 | 74 | 1021.2 |
| 20260904130821 | 80 | 219 | 3.0 | 4.0 | 0.00 | 0.00 | 0.00 | 74 | 1021.2 |
| 20260904130716 | 80 | 221 | 3.0 | 4.0 | 0.00 | 0.00 | 0.00 | 74 | 1021.2 |
| 20260904130613 | 79 | 223 | 3.0 | 4.0 | 0.00 | 0.00 | 0.00 | 74 | 1021.1 |
| 20260904130514 | 80 | 219 | 2.0 | 4.0 | 0.00 | 0.00 | 0.00 | 74 | 1021.2 |
| 20260904130415 | 80 | 219 | 2.0 | 5.0 | 0.00 | 0.00 | 0.00 | 74 | 1021.2 |
| 20260904130315 | 79 | 217 | 3.0 | 5.0 | 0.00 | 0.00 | 0.00 | 74 | 1021.2 |
| 20260904130240 | 79 | 227 | 3.0 | 5.0 | 0.00 | 0.00 | 0.00 | 75 | 1021.2 |
| 20260904130228 | 79 | 212 | 3.0 | 5.0 | 0.00 | 0.00 | 0.00 | 74 | 1021.2 |
| 20260904130008 | 79 | 229 | 3.0 | 5.0 | 0.00 | 0.00 | 0.00 | 74 | 1021.2 |
| 20260904125906 | 79 | 219 | 3.0 | 5.0 | 0.00 | 0.00 | 0.00 | 75 | 1021.1 |
| 20260904125835 | 79 | 229 | 3.0 | 5.0 | 0.00 | 0.00 | 0.00 | 74 | 1021.1 |
| 20260904125824 | 79 | 218 | 3.0 | 5.0 | 0.00 | 0.00 | 0.00 | 74 | 1021.1 |
| 20260904125559 | 79 | 236 | 3.0 | 5.0 | 0.00 | 0.00 | 0.00 | 74 | 1021.1 |
| 20260904125459 | 79 | 238 | 3.0 | 5.0 | 0.00 | 0.00 | 0.00 | 74 | 1021.1 |
| 20260904125358 | 79 | 240 | 3.0 | 5.0 | 0.00 | 0.00 | 0.00 | 74 | 1021.1 |
| 20260904125259 | 79 | 223 | 3.0 | 5.0 | 0.00 | 0.00 | 0.00 | 74 | 1021.1 |
| 20260904125153 | 79 | 232 | 3.0 | 5.0 | 0.00 | 0.00 | 0.00 | 75 | 1021.0 |
| 20260904125131 | 79 | 213 | 3.0 | 4.0 | 0.00 | 0.00 | 0.00 | 75 | 1021.1 |
| 20260904125119 | 79 | 215 | 3.0 | 4.0 | 0.00 | 0.00 | 0.00 | 74 | 1021.1 |
| 20260904124853 | 79 | 224 | 3.0 | 5.0 | 0.00 | 0.00 | 0.00 | 75 | 1021.1 |
| 20260904124753 | 79 | 219 | 3.0 | 5.0 | 0.00 | 0.00 | 0.00 | 75 | 1021.1 |
| 20260904124644 | 79 | 220 | 3.0 | 5.0 | 0.00 | 0.00 | 0.00 | 75 | 1021.1 |
| 20260904124617 | 79 | 212 | 2.0 | 5.0 | 0.00 | 0.00 | 0.00 | 75 | 1021.1 |
| 20260904124606 | 79 | 214 | 3.0 | 5.0 | 0.00 | 0.00 | 0.00 | 75 | 1021.1 |
| 20260904124340 | 79 | 229 | 2.0 | 5.0 | 0.00 | 0.00 | 0.00 | 75 | 1021.1 |
| 20260904124245 | 79 | 225 | 2.0 | 5.0 | 0.00 | 0.00 | 0.00 | 75 | 1021.1 |
| 20260904124138 | 79 | 211 | 2.0 | 5.0 | 0.00 | 0.00 | 0.00 | 75 | 1021.1 |
| 20260904124108 | 79 | 198 | 2.0 | 5.0 | 0.00 | 0.00 | 0.00 | 75 | 1021.1 |
| 20260904124058 | 79 | 198 | 2.0 | 5.0 | 0.00 | 0.00 | 0.00 | 75 | 1021.0 |
| 20260904123835 | 79 | 236 | 2.0 | 5.0 | 0.00 | 0.00 | 0.00 | 75 | 1021.1 |
| 20260904123802 | 79 | 190 | 2.0 | 4.0 | 0.00 | 0.00 | 0.00 | 75 | 1021.1 |
| 20260904123751 | 79 | 221 | 2.0 | 4.0 | 0.00 | 0.00 | 0.00 | 75 | 1021.1 |
| 20260904123528 | 78 | 212 | 2.0 | 4.0 | 0.00 | 0.00 | 0.00 | 75 | 1021.0 |
| 20260904123428 | 78 | 212 | 2.0 | 4.0 | 0.00 | 0.00 | 0.00 | 75 | 1021.1 |
| 20260904123333 | 78 | 209 | 2.0 | 4.0 | 0.00 | 0.00 | 0.00 | 75 | 1021.0 |
| 20260904123228 | 78 | 224 | 2.0 | 4.0 | 0.00 | 0.00 | 0.00 | 75 | 1021.0 |
| 20260904123118 | 78 | 227 | 1.0 | 4.0 | 0.00 | 0.00 | 0.00 | 75 | 1021.0 |
| 20260904123017 | 78 | 203 | 2.0 | 4.0 | 0.00 | 0.00 | 0.00 | 75 | 1021.0 |
| 20260904122918 | 78 | 228 | 2.0 | 4.0 | 0.00 | 0.00 | 0.00 | 75 | 1021.0 |
| 20260904122819 | 78 | 230 | 2.0 | 4.0 | 0.00 | 0.00 | 0.00 | 75 | 1021.0 |
| 20260904122717 | 78 | 233 | 2.0 | 4.0 | 0.00 | 0.00 | 0.00 | 75 | 1021.0 |
| 20260904122614 | 78 | 233 | 2.0 | 4.0 | 0.00 | 0.00 | 0.00 | 75 | 1021.0 |
| 20260904122543 | 78 | 220 | 2.0 | 3.0 | 0.00 | 0.00 | 0.00 | 76 | 1021.0 |
| 20260904122534 | 78 | 227 | 2.0 | 4.0 | 0.00 | 0.00 | 0.00 | 75 | 1021.0 |
| 20260904122310 | 78 | 220 | 2.0 | 3.0 | 0.00 | 0.00 | 0.00 | 75 | 1020.9 |
| 20260904122211 | 78 | 220 | 2.0 | 3.0 | 0.00 | 0.00 | 0.00 | 76 | 1020.9 |
| 20260904122105 | 78 | 220 | 2.0 | 3.0 | 0.00 | 0.00 | 0.00 | 76 | 1020.9 |
| 20260904122014 | 78 | 199 | 2.0 | 4.0 | 0.00 | 0.00 | 0.00 | 76 | 1021.0 |
| 20260904122004 | 78 | 220 | 2.0 | 4.0 | 0.00 | 0.00 | 0.00 | 76 | 1020.9 |
| 20260904121956 | 78 | 199 | 2.0 | 4.0 | 0.00 | 0.00 | 0.00 | 76 | 1021.0 |
| 20260904121942 | 78 | 220 | 2.0 | 4.0 | 0.00 | 0.00 | 0.00 | 76 | 1021.0 |
| 20260904121924 | 78 | 220 | 2.0 | 4.0 | 0.00 | 0.00 | 0.00 | 76 | 1020.9 |
| 20260904121649 | 78 | 232 | 2.0 | 4.0 | 0.00 | 0.00 | 0.00 | 76 | 1020.9 |
| 20260904121643 | 77 | 217 | 2.0 | 3.0 | 0.00 | 0.00 | 0.00 | 77 | 1020.9 |
| 20260904121638 | 77 | 217 | 2.0 | 3.0 | 0.00 | 0.00 | 0.00 | 77 | 1020.9 |
| 20260904121623 | 78 | 199 | 2.0 | 4.0 | 0.00 | 0.00 | 0.00 | 76 | 1021.0 |
| 20260904121557 | 78 | 199 | 2.0 | 4.0 | 0.00 | 0.00 | 0.00 | 76 | 1020.9 |
| 20260904121426 | 78 | 199 | 2.0 | 4.0 | 0.00 | 0.00 | 0.00 | 76 | 1020.9 |
| 20260904121247 | 78 | 211 | 2.0 | 4.0 | 0.00 | 0.00 | 0.00 | 76 | 1020.9 |
| 20260904121121 | 78 | 211 | 2.0 | 4.0 | 0.00 | 0.00 | 0.00 | 76 | 1020.9 |
| 20260904120941 | 78 | 232 | 2.0 | 4.0 | 0.00 | 0.00 | 0.00 | 76 | 1020.9 |
| 20260904120814 | 77 | 234 | 2.0 | 4.0 | 0.00 | 0.00 | 0.00 | 77 | 1020.9 |
| 20260904120647 | 77 | 207 | 2.0 | 4.0 | 0.00 | 0.00 | 0.00 | 76 | 1020.9 |
| 20260904120624 | 77 | 205 | 2.0 | 4.0 | 0.00 | 0.00 | 0.00 | 76 | 1020.9 |
| 20260904120239 | 77 | 217 | 2.0 | 3.0 | 0.00 | 0.00 | 0.00 | 77 | 1020.9 |
| 20260904120140 | 77 | 238 | 2.0 | 3.0 | 0.00 | 0.00 | 0.00 | 77 | 1020.9 |
| 20260904120036 | 77 | 238 | 2.0 | 3.0 | 0.00 | 0.00 | 0.00 | 77 | 1020.8 |
| 20260904115937 | 77 | 238 | 2.0 | 3.0 | 0.00 | 0.00 | 0.00 | 77 | 1020.9 |
| 20260904115838 | 77 | 238 | 1.0 | 3.0 | 0.00 | 0.00 | 0.00 | 76 | 1020.8 |
| 20260904115812 | 77 | 238 | 1.0 | 3.0 | 0.00 | 0.00 | 0.00 | 77 | 1020.8 |
| 20260904115801 | 77 | 238 | 1.0 | 3.0 | 0.00 | 0.00 | 0.00 | 76 | 1020.9 |
| 20260904115542 | 77 | 243 | 1.0 | 3.0 | 0.00 | 0.00 | 0.00 | 77 | 1020.9 |
| 20260904115437 | 77 | 243 | 1.0 | 3.0 | 0.00 | 0.00 | 0.00 | 76 | 1020.8 |
| 20260904115405 | 77 | 247 | 1.0 | 3.0 | 0.00 | 0.00 | 0.00 | 76 | 1020.9 |
| 20260904115354 | 77 | 245 | 1.0 | 3.0 | 0.00 | 0.00 | 0.00 | 76 | 1020.8 |
| 20260904115132 | 77 | 247 | 1.0 | 3.0 | 0.00 | 0.00 | 0.00 | 76 | 1020.8 |
| 20260904115034 | 77 | 210 | 1.0 | 2.0 | 0.00 | 0.00 | 0.00 | 76 | 1020.8 |
| 20260904114931 | 77 | 210 | 1.0 | 2.0 | 0.00 | 0.00 | 0.00 | 76 | 1020.8 |
| 20260904114834 | 77 | 210 | 1.0 | 2.0 | 0.00 | 0.00 | 0.00 | 76 | 1020.7 |
| 20260904114730 | 78 | 210 | 1.0 | 2.0 | 0.00 | 0.00 | 0.00 | 76 | 1020.7 |
| 20260904114631 | 78 | 210 | 1.0 | 2.0 | 0.00 | 0.00 | 0.00 | 76 | 1020.7 |
| 20260904114528 | 78 | 210 | 1.0 | 2.0 | 0.00 | 0.00 | 0.00 | 76 | 1020.7 |
| 20260904114428 | 78 | 210 | 1.0 | 2.0 | 0.00 | 0.00 | 0.00 | 76 | 1020.7 |
| 20260904114357 | 78 | 210 | 1.0 | 2.0 | 0.00 | 0.00 | 0.00 | 76 | 1020.6 |
| 20260904114350 | 78 | 210 | 1.0 | 2.0 | 0.00 | 0.00 | 0.00 | 76 | 1020.7 |
| 20260904114124 | 78 | 210 | 1.0 | 2.0 | 0.00 | 0.00 | 0.00 | 76 | 1020.7 |
| 20260904114022 | 78 | 210 | 1.0 | 2.0 | 0.00 | 0.00 | 0.00 | 76 | 1020.7 |
| 20260904113955 | 78 | 210 | 1.0 | 2.0 | 0.00 | 0.00 | 0.00 | 76 | 1020.7 |
| 20260904113944 | 78 | 210 | 1.0 | 2.0 | 0.00 | 0.00 | 0.00 | 76 | 1020.7 |
| 20260904113723 | 78 | 210 | 1.0 | 3.0 | 0.00 | 0.00 | 0.00 | 76 | 1020.6 |
| 20260904113654 | 78 | 210 | 1.0 | 3.0 | 0.00 | 0.00 | 0.00 | 76 | 1020.7 |
| 20260904113643 | 78 | 210 | 1.0 | 3.0 | 0.00 | 0.00 | 0.00 | 76 | 1020.7 |
| 20260904113456 | 78 | 207 | 1.0 | 3.0 | 0.00 | 0.00 | 0.00 | 75 | 1020.7 |
| 20260904113446 | 78 | 207 | 1.0 | 3.0 | 0.00 | 0.00 | 0.00 | 75 | 1020.6 |
| 20260904113223 | 78 | 207 | 1.0 | 3.0 | 0.00 | 0.00 | 0.00 | 75 | 1020.7 |
| 20260904113122 | 78 | 207 | 1.0 | 3.0 | 0.00 | 0.00 | 0.00 | 75 | 1020.6 |
| 20260904113023 | 78 | 207 | 1.0 | 3.0 | 0.00 | 0.00 | 0.00 | 75 | 1020.6 |
| 20260904112922 | 78 | 207 | 1.0 | 3.0 | 0.00 | 0.00 | 0.00 | 75 | 1020.6 |
| 20260904112854 | 78 | 204 | 1.0 | 2.0 | 0.00 | 0.00 | 0.00 | 75 | 1020.5 |
| 20260904112843 | 78 | 207 | 1.0 | 3.0 | 0.00 | 0.00 | 0.00 | 75 | 1020.5 |
| 20260904112623 | 78 | 204 | 1.0 | 2.0 | 0.00 | 0.00 | 0.00 | 75 | 1020.5 |
| 20260904112522 | 78 | 204 | 1.0 | 2.0 | 0.00 | 0.00 | 0.00 | 75 | 1020.6 |
| 20260904112423 | 78 | 204 | 1.0 | 2.0 | 0.00 | 0.00 | 0.00 | 74 | 1020.5 |
| 20260904112322 | 78 | 204 | 1.0 | 2.0 | 0.00 | 0.00 | 0.00 | 74 | 1020.5 |
| 20260904112224 | 78 | 204 | 1.0 | 2.0 | 0.00 | 0.00 | 0.00 | 74 | 1020.5 |
| 20260904112155 | 78 | 204 | 1.0 | 2.0 | 0.00 | 0.00 | 0.00 | 74 | 1020.5 |
| 20260904112144 | 78 | 204 | 1.0 | 2.0 | 0.00 | 0.00 | 0.00 | 74 | 1020.5 |
| 20260904111922 | 78 | 204 | 1.0 | 2.0 | 0.00 | 0.00 | 0.00 | 74 | 1020.5 |
| 20260904111820 | 79 | 204 | 1.0 | 2.0 | 0.00 | 0.00 | 0.00 | 74 | 1020.5 |
| 20260904111753 | 79 | 204 | 1.0 | 2.0 | 0.00 | 0.00 | 0.00 | 74 | 1020.5 |
| 20260904111741 | 79 | 204 | 1.0 | 2.0 | 0.00 | 0.00 | 0.00 | 74 | 1020.5 |
| 20260904111521 | 79 | 204 | 1.0 | 2.0 | 0.00 | 0.00 | 0.00 | 74 | 1020.4 |
| 20260904111415 | 79 | 204 | 1.0 | 2.0 | 0.00 | 0.00 | 0.00 | 74 | 1020.3 |
| 20260904111318 | 79 | 201 | 1.0 | 2.0 | 0.00 | 0.00 | 0.00 | 73 | 1020.4 |
| 20260904111216 | 79 | 201 | 1.0 | 2.0 | 0.00 | 0.00 | 0.00 | 73 | 1020.3 |
| 20260904111115 | 79 | 201 | 1.0 | 2.0 | 0.00 | 0.00 | 0.00 | 73 | 1020.3 |
| 20260904111021 | 79 | 201 | 1.0 | 2.0 | 0.00 | 0.00 | 0.00 | 73 | 1020.3 |
| 20260904110911 | 79 | 201 | 1.0 | 2.0 | 0.00 | 0.00 | 0.00 | 73 | 1020.3 |
| 20260904110807 | 79 | 201 | 1.0 | 3.0 | 0.00 | 0.00 | 0.00 | 73 | 1020.3 |
| 20260904110740 | 79 | 201 | 1.0 | 3.0 | 0.00 | 0.00 | 0.00 | 73 | 1020.3 |
| 20260904110729 | 79 | 201 | 1.0 | 3.0 | 0.00 | 0.00 | 0.00 | 73 | 1020.3 |
| 20260904110509 | 79 | 201 | 1.0 | 3.0 | 0.00 | 0.00 | 0.00 | 73 | 1020.3 |
| 20260904110404 | 79 | 201 | 1.0 | 3.0 | 0.00 | 0.00 | 0.00 | 73 | 1020.3 |
| 20260904110303 | 80 | 201 | 1.0 | 3.0 | 0.00 | 0.00 | 0.00 | 72 | 1020.3 |
| 20260904110204 | 80 | 201 | 1.0 | 3.0 | 0.00 | 0.00 | 0.00 | 72 | 1020.3 |
| 20260904110100 | 80 | 201 | 1.0 | 4.0 | 0.00 | 0.00 | 0.00 | 72 | 1020.3 |
| 20260904105959 | 80 | 201 | 1.0 | 4.0 | 0.00 | 0.00 | 0.00 | 72 | 1020.3 |
| 20260904105859 | 80 | 201 | 2.0 | 4.0 | 0.00 | 0.00 | 0.00 | 72 | 1020.2 |
| 20260904105755 | 80 | 201 | 2.0 | 4.0 | 0.00 | 0.00 | 0.00 | 72 | 1020.2 |
| 20260904105723 | 80 | 201 | 2.0 | 4.0 | 0.00 | 0.00 | 0.00 | 72 | 1020.2 |
| 20260904105714 | 80 | 201 | 2.0 | 4.0 | 0.00 | 0.00 | 0.00 | 72 | 1020.2 |
| 20260904105453 | 80 | 201 | 2.0 | 4.0 | 0.00 | 0.00 | 0.00 | 72 | 1020.2 |
| 20260904105349 | 80 | 201 | 2.0 | 4.0 | 0.00 | 0.00 | 0.00 | 72 | 1020.1 |
| 20260904105250 | 80 | 201 | 2.0 | 4.0 | 0.00 | 0.00 | 0.00 | 72 | 1020.2 |
| 20260904105150 | 80 | 201 | 2.0 | 4.0 | 0.00 | 0.00 | 0.00 | 72 | 1020.2 |
| 20260904105049 | 80 | 196 | 2.0 | 3.0 | 0.00 | 0.00 | 0.00 | 72 | 1020.2 |
| 20260904104948 | 80 | 196 | 2.0 | 3.0 | 0.00 | 0.00 | 0.00 | 72 | 1020.2 |
| 20260904104845 | 79 | 196 | 2.0 | 3.0 | 0.00 | 0.00 | 0.00 | 72 | 1020.2 |
| 20260904104745 | 79 | 196 | 2.0 | 3.0 | 0.00 | 0.00 | 0.00 | 72 | 1020.2 |
| 20260904104644 | 79 | 196 | 2.0 | 3.0 | 0.00 | 0.00 | 0.00 | 73 | 1020.2 |
| 20260904104617 | 79 | 195 | 2.0 | 3.0 | 0.00 | 0.00 | 0.00 | 73 | 1020.2 |
| 20260904104608 | 79 | 196 | 2.0 | 3.0 | 0.00 | 0.00 | 0.00 | 73 | 1020.2 |
| 20260904104412 | 79 | 188 | 2.0 | 3.0 | 0.00 | 0.00 | 0.00 | 73 | 1020.2 |
| 20260904104403 | 79 | 189 | 2.0 | 3.0 | 0.00 | 0.00 | 0.00 | 73 | 1020.2 |
| 20260904104143 | 79 | 188 | 2.0 | 3.0 | 0.00 | 0.00 | 0.00 | 73 | 1020.2 |
| 20260904104041 | 78 | 188 | 2.0 | 3.0 | 0.00 | 0.00 | 0.00 | 74 | 1020.2 |
| 20260904103941 | 78 | 188 | 2.0 | 3.0 | 0.00 | 0.00 | 0.00 | 74 | 1020.2 |
| 20260904103840 | 78 | 188 | 2.0 | 3.0 | 0.00 | 0.00 | 0.00 | 74 | 1020.2 |
| 20260904103736 | 78 | 188 | 2.0 | 3.0 | 0.00 | 0.00 | 0.00 | 74 | 1020.2 |
| 20260904103637 | 78 | 188 | 2.0 | 3.0 | 0.00 | 0.00 | 0.00 | 74 | 1020.2 |
| 20260904103536 | 78 | 188 | 2.0 | 3.0 | 0.00 | 0.00 | 0.00 | 74 | 1020.1 |
| 20260904103435 | 78 | 188 | 2.0 | 3.0 | 0.00 | 0.00 | 0.00 | 74 | 1020.2 |
| 20260904103333 | 78 | 188 | 2.0 | 3.0 | 0.00 | 0.00 | 0.00 | 74 | 1020.1 |
| 20260904103304 | 78 | 188 | 1.0 | 3.0 | 0.00 | 0.00 | 0.00 | 74 | 1020.2 |
| 20260904103254 | 78 | 188 | 2.0 | 3.0 | 0.00 | 0.00 | 0.00 | 74 | 1020.1 |
| 20260904103030 | 78 | 188 | 1.0 | 3.0 | 0.00 | 0.00 | 0.00 | 74 | 1020.2 |
| 20260904102927 | 78 | 188 | 1.0 | 3.0 | 0.00 | 0.00 | 0.00 | 74 | 1020.2 |
| 20260904102829 | 78 | 188 | 1.0 | 3.0 | 0.00 | 0.00 | 0.00 | 74 | 1020.2 |
| 20260904102729 | 78 | 188 | 1.0 | 3.0 | 0.00 | 0.00 | 0.00 | 74 | 1020.2 |
| 20260904102622 | 78 | 188 | 1.0 | 3.0 | 0.00 | 0.00 | 0.00 | 74 | 1020.2 |
| 20260904102522 | 78 | 188 | 1.0 | 3.0 | 0.00 | 0.00 | 0.00 | 74 | 1020.1 |
| 20260904102423 | 78 | 188 | 1.0 | 3.0 | 0.00 | 0.00 | 0.00 | 74 | 1020.2 |
| 20260904102354 | 78 | 188 | 1.0 | 3.0 | 0.00 | 0.00 | 0.00 | 74 | 1020.1 |
| 20260904102344 | 78 | 188 | 1.0 | 3.0 | 0.00 | 0.00 | 0.00 | 74 | 1020.2 |
| 20260904102122 | 78 | 188 | 1.0 | 3.0 | 0.00 | 0.00 | 0.00 | 74 | 1020.1 |
| 20260904102019 | 78 | 188 | 1.0 | 3.0 | 0.00 | 0.00 | 0.00 | 74 | 1020.2 |
| 20260904101948 | 78 | 188 | 1.0 | 3.0 | 0.00 | 0.00 | 0.00 | 74 | 1020.1 |
| 20260904101937 | 78 | 188 | 1.0 | 3.0 | 0.00 | 0.00 | 0.00 | 74 | 1020.1 |
| 20260904101717 | 78 | 188 | 1.0 | 3.0 | 0.00 | 0.00 | 0.00 | 74 | 1020.1 |
| 20260904101617 | 78 | 188 | 1.0 | 2.0 | 0.00 | 0.00 | 0.00 | 74 | 1020.1 |
| 20260904101516 | 78 | 188 | 1.0 | 3.0 | 0.00 | 0.00 | 0.00 | 74 | 1020.1 |
| 20260904101416 | 78 | 188 | 1.0 | 3.0 | 0.00 | 0.00 | 0.00 | 75 | 1020.1 |
| 20260904101316 | 78 | 188 | 1.0 | 3.0 | 0.00 | 0.00 | 0.00 | 75 | 1019.9 |
| 20260904101217 | 78 | 188 | 1.0 | 3.0 | 0.00 | 0.00 | 0.00 | 75 | 1019.9 |
| 20260904101116 | 78 | 184 | 1.0 | 3.0 | 0.00 | 0.00 | 0.00 | 75 | 1019.9 |
| 20260904101014 | 78 | 184 | 1.0 | 3.0 | 0.00 | 0.00 | 0.00 | 74 | 1019.9 |
| 20260904100912 | 78 | 184 | 1.0 | 3.0 | 0.00 | 0.00 | 0.00 | 75 | 1019.9 |
| 20260904100812 | 78 | 184 | 1.0 | 3.0 | 0.00 | 0.00 | 0.00 | 75 | 1019.9 |
| 20260904100710 | 78 | 184 | 1.0 | 3.0 | 0.00 | 0.00 | 0.00 | 75 | 1019.9 |
| 20260904100609 | 78 | 184 | 1.0 | 3.0 | 0.00 | 0.00 | 0.00 | 75 | 1019.9 |
| 20260904100505 | 78 | 209 | 1.0 | 3.0 | 0.00 | 0.00 | 0.00 | 75 | 1019.9 |
| 20260904100406 | 78 | 221 | 1.0 | 3.0 | 0.00 | 0.00 | 0.00 | 75 | 1019.9 |
| 20260904100304 | 78 | 227 | 1.0 | 3.0 | 0.00 | 0.00 | 0.00 | 75 | 1019.9 |
| 20260904100205 | 78 | 227 | 1.0 | 3.0 | 0.00 | 0.00 | 0.00 | 75 | 1020.1 |
| 20260904100104 | 78 | 227 | 1.0 | 3.0 | 0.00 | 0.00 | 0.00 | 75 | 1020.1 |
| 20260904100032 | 78 | 204 | 1.0 | 3.0 | 0.00 | 0.00 | 0.00 | 75 | 1019.9 |
| 20260904100022 | 78 | 204 | 1.0 | 3.0 | 0.00 | 0.00 | 0.00 | 75 | 1020.1 |
| 20260904095757 | 78 | 204 | 1.0 | 3.0 | 0.00 | 0.00 | 0.00 | 75 | 1019.9 |
| 20260904095658 | 78 | 204 | 1.0 | 3.0 | 0.00 | 0.00 | 0.00 | 75 | 1019.9 |
| 20260904095558 | 78 | 229 | 1.0 | 3.0 | 0.00 | 0.00 | 0.00 | 75 | 1019.9 |
| 20260904095458 | 78 | 229 | 1.0 | 3.0 | 0.00 | 0.00 | 0.00 | 75 | 1019.9 |
| 20260904095359 | 78 | 229 | 1.0 | 3.0 | 0.00 | 0.00 | 0.00 | 75 | 1020.1 |
| 20260904095258 | 78 | 211 | 0.0 | 3.0 | 0.00 | 0.00 | 0.00 | 75 | 1019.9 |
| 20260904095153 | 78 | 201 | 0.0 | 3.0 | 0.00 | 0.00 | 0.00 | 75 | 1020.1 |
| 20260904095056 | 78 | 200 | 0.0 | 3.0 | 0.00 | 0.00 | 0.00 | 75 | 1019.8 |
| 20260904094957 | 78 | 200 | 0.0 | 3.0 | 0.00 | 0.00 | 0.00 | 75 | 1019.8 |
| 20260904094931 | 78 | 175 | 0.0 | 0.0 | 0.00 | 0.00 | 0.00 | 74 | 1019.8 |
| 20260904094917 | 78 | 200 | 0.0 | 3.0 | 0.00 | 0.00 | 0.00 | 75 | 1019.9 |
| 20260904094650 | 78 | 216 | 0.0 | 0.0 | 0.00 | 0.00 | 0.00 | 74 | 1019.8 |
| 20260904094550 | 78 | 216 | 0.0 | 0.0 | 0.00 | 0.00 | 0.00 | 74 | 1019.9 |
| 20260904094447 | 78 | 216 | 0.0 | 0.0 | 0.00 | 0.00 | 0.00 | 74 | 1019.9 |
| 20260904094337 | 78 | 216 | 0.0 | 0.0 | 0.00 | 0.00 | 0.00 | 74 | 1019.8 |
| 20260904094237 | 78 | 216 | 0.0 | 0.0 | 0.00 | 0.00 | 0.00 | 74 | 1019.8 |
| 20260904094136 | 78 | 216 | 0.0 | 0.0 | 0.00 | 0.00 | 0.00 | 74 | 1019.8 |
| 20260904094037 | 78 | 216 | 0.0 | 0.0 | 0.00 | 0.00 | 0.00 | 74 | 1019.8 |
| 20260904093938 | 78 | 216 | 0.0 | 0.0 | 0.00 | 0.00 | 0.00 | 74 | 1019.8 |
| 20260904093832 | 78 | 216 | 0.0 | 0.0 | 0.00 | 0.00 | 0.00 | 74 | 1019.8 |
| 20260904093732 | 78 | 216 | 0.0 | 0.0 | 0.00 | 0.00 | 0.00 | 74 | 1019.8 |
| 20260904093630 | 78 | 216 | 0.0 | 0.0 | 0.00 | 0.00 | 0.00 | 74 | 1019.8 |
| 20260904093603 | 78 | 216 | 0.0 | 0.0 | 0.00 | 0.00 | 0.00 | 74 | 1019.7 |
| 20260904093552 | 78 | 216 | 0.0 | 0.0 | 0.00 | 0.00 | 0.00 | 74 | 1019.7 |
| 20260904093326 | 78 | 216 | 0.0 | 0.0 | 0.00 | 0.00 | 0.00 | 74 | 1019.8 |
| 20260904093232 | 78 | 216 | 0.0 | 0.0 | 0.00 | 0.00 | 0.00 | 74 | 1019.8 |
| 20260904093219 | 78 | 216 | 0.0 | 2.0 | 0.00 | 0.00 | 0.00 | 74 | 1019.7 |
| 20260904093201 | 78 | 216 | 0.0 | 2.0 | 0.00 | 0.00 | 0.00 | 74 | 1019.7 |
| 20260904092925 | 78 | 216 | 0.0 | 2.0 | 0.00 | 0.00 | 0.00 | 74 | 1019.8 |
| 20260904092816 | 78 | 216 | 0.0 | 2.0 | 0.00 | 0.00 | 0.00 | 74 | 1019.7 |
| 20260904092713 | 78 | 216 | 0.0 | 2.0 | 0.00 | 0.00 | 0.00 | 74 | 1019.7 |
| 20260904092644 | 78 | 216 | 0.0 | 2.0 | 0.00 | 0.00 | 0.00 | 74 | 1019.7 |
| 20260904092634 | 78 | 216 | 0.0 | 2.0 | 0.00 | 0.00 | 0.00 | 74 | 1019.7 |
| 20260904092411 | 78 | 216 | 1.0 | 2.0 | 0.00 | 0.00 | 0.00 | 74 | 1019.7 |
| 20260904092306 | 78 | 216 | 1.0 | 3.0 | 0.00 | 0.00 | 0.00 | 74 | 1019.7 |
| 20260904092207 | 78 | 216 | 1.0 | 3.0 | 0.00 | 0.00 | 0.00 | 74 | 1019.8 |
| 20260904092105 | 78 | 216 | 0.0 | 3.0 | 0.00 | 0.00 | 0.00 | 74 | 1019.7 |
| 20260904092005 | 78 | 216 | 0.0 | 3.0 | 0.00 | 0.00 | 0.00 | 74 | 1019.7 |
| 20260904091912 | 78 | 216 | 0.0 | 3.0 | 0.00 | 0.00 | 0.00 | 74 | 1019.7 |
| 20260904091807 | 78 | 216 | 0.0 | 3.0 | 0.00 | 0.00 | 0.00 | 74 | 1019.7 |
| 20260904091733 | 78 | 216 | 0.0 | 3.0 | 0.00 | 0.00 | 0.00 | 74 | 1019.6 |
| 20260904091724 | 78 | 216 | 0.0 | 3.0 | 0.00 | 0.00 | 0.00 | 74 | 1019.7 |
| 20260904091500 | 78 | 216 | 1.0 | 3.0 | 0.00 | 0.00 | 0.00 | 74 | 1019.7 |
| 20260904091357 | 78 | 216 | 0.0 | 3.0 | 0.00 | 0.00 | 0.00 | 74 | 1019.7 |
| 20260904091258 | 78 | 219 | 1.0 | 2.0 | 0.00 | 0.00 | 0.00 | 74 | 1019.6 |
| 20260904091156 | 78 | 219 | 1.0 | 2.0 | 0.00 | 0.00 | 0.00 | 74 | 1019.6 |
| 20260904091054 | 78 | 219 | 1.0 | 4.0 | 0.00 | 0.00 | 0.00 | 74 | 1019.6 |
| 20260904090953 | 78 | 219 | 1.0 | 4.0 | 0.00 | 0.00 | 0.00 | 74 | 1019.7 |
| 20260904090849 | 78 | 219 | 1.0 | 4.0 | 0.00 | 0.00 | 0.00 | 74 | 1019.6 |
| 20260904090751 | 78 | 219 | 1.0 | 4.0 | 0.00 | 0.00 | 0.00 | 74 | 1019.6 |
| 20260904090732 | 78 | 219 | 1.0 | 4.0 | 0.00 | 0.00 | 0.00 | 74 | 1019.6 |
| 20260904090720 | 78 | 219 | 1.0 | 4.0 | 0.00 | 0.00 | 0.00 | 74 | 1019.6 |
| 20260904090446 | 78 | 219 | 1.0 | 4.0 | 0.00 | 0.00 | 0.00 | 74 | 1019.6 |
| 20260904090347 | 78 | 219 | 1.0 | 4.0 | 0.00 | 0.00 | 0.00 | 74 | 1019.5 |
| 20260904090246 | 78 | 219 | 1.0 | 4.0 | 0.00 | 0.00 | 0.00 | 74 | 1019.6 |
| 20260904090147 | 78 | 229 | 0.0 | 4.0 | 0.00 | 0.00 | 0.00 | 74 | 1019.6 |
| 20260904090046 | 78 | 221 | 0.0 | 4.0 | 0.00 | 0.00 | 0.00 | 74 | 1019.5 |
| 20260904085947 | 78 | 198 | 0.0 | 2.0 | 0.00 | 0.00 | 0.00 | 74 | 1019.6 |
| 20260904085921 | 78 | 199 | 0.0 | 1.0 | 0.00 | 0.00 | 0.00 | 74 | 1019.6 |
| 20260904085910 | 78 | 199 | 0.0 | 1.0 | 0.00 | 0.00 | 0.00 | 74 | 1019.6 |
| 20260904085644 | 78 | 199 | 0.0 | 1.0 | 0.00 | 0.00 | 0.00 | 74 | 1019.6 |
| 20260904085543 | 78 | 199 | 0.0 | 1.0 | 0.00 | 0.00 | 0.00 | 73 | 1019.6 |
| 20260904085516 | 78 | 199 | 0.0 | 1.0 | 0.00 | 0.00 | 0.00 | 73 | 1019.6 |
| 20260904085506 | 78 | 199 | 0.0 | 1.0 | 0.00 | 0.00 | 0.00 | 73 | 1019.6 |
| 20260904085315 | 78 | 199 | 0.0 | 1.0 | 0.00 | 0.00 | 0.00 | 73 | 1019.5 |
| 20260904085306 | 78 | 199 | 0.0 | 1.0 | 0.00 | 0.00 | 0.00 | 73 | 1019.6 |
| 20260904085041 | 78 | 199 | 0.0 | 2.0 | 0.00 | 0.00 | 0.00 | 74 | 1019.5 |
| 20260904084955 | 78 | 199 | 0.0 | 2.0 | 0.00 | 0.00 | 0.00 | 73 | 1019.5 |
| 20260904084951 | 78 | 199 | 0.0 | 2.0 | 0.00 | 0.00 | 0.00 | 73 | 1019.6 |
| 20260904084941 | 78 | 199 | 0.0 | 2.0 | 0.00 | 0.00 | 0.00 | 73 | 1019.5 |
| 20260904084920 | 78 | 199 | 0.0 | 2.0 | 0.00 | 0.00 | 0.00 | 73 | 1019.5 |
| 20260904084541 | 78 | 199 | 0.0 | 2.0 | 0.00 | 0.00 | 0.00 | 73 | 1019.6 |
| 20260904084442 | 78 | 199 | 0.0 | 2.0 | 0.00 | 0.00 | 0.00 | 74 | 1019.5 |
| 20260904084342 | 78 | 199 | 0.0 | 2.0 | 0.00 | 0.00 | 0.00 | 74 | 1019.6 |
| 20260904084305 | 78 | 200 | 0.0 | 2.0 | 0.00 | 0.00 | 0.00 | 74 | 1019.6 |
| 20260904084300 | 78 | 200 | 0.0 | 3.0 | 0.00 | 0.00 | 0.00 | 74 | 1019.6 |
| 20260904084246 | 78 | 199 | 0.0 | 2.0 | 0.00 | 0.00 | 0.00 | 74 | 1019.5 |
| 20260904084223 | 78 | 199 | 0.0 | 2.0 | 0.00 | 0.00 | 0.00 | 74 | 1019.6 |
| 20260904083845 | 78 | 200 | 0.0 | 3.0 | 0.00 | 0.00 | 0.00 | 74 | 1019.5 |
| 20260904083741 | 78 | 200 | 0.0 | 3.0 | 0.00 | 0.00 | 0.00 | 74 | 1019.6 |
| 20260904083643 | 78 | 200 | 0.0 | 3.0 | 0.00 | 0.00 | 0.00 | 74 | 1019.6 |
| 20260904083616 | 78 | 200 | 0.0 | 3.0 | 0.00 | 0.00 | 0.00 | 74 | 1019.6 |
| 20260904083604 | 78 | 200 | 0.0 | 3.0 | 0.00 | 0.00 | 0.00 | 74 | 1019.6 |
| 20260904083341 | 78 | 200 | 0.0 | 3.0 | 0.00 | 0.00 | 0.00 | 74 | 1019.5 |
| 20260904083242 | 78 | 199 | 0.0 | 3.0 | 0.00 | 0.00 | 0.00 | 74 | 1019.6 |
| 20260904083142 | 78 | 200 | 0.0 | 3.0 | 0.00 | 0.00 | 0.00 | 74 | 1019.6 |
| 20260904083042 | 78 | 200 | 0.0 | 3.0 | 0.00 | 0.00 | 0.00 | 74 | 1019.5 |
| 20260904082938 | 78 | 194 | 0.0 | 2.0 | 0.00 | 0.00 | 0.00 | 74 | 1019.6 |
| 20260904082838 | 78 | 194 | 0.0 | 2.0 | 0.00 | 0.00 | 0.00 | 74 | 1019.6 |
| 20260904082738 | 78 | 194 | 0.0 | 2.0 | 0.00 | 0.00 | 0.00 | 74 | 1019.6 |
| 20260904082637 | 78 | 194 | 0.0 | 2.0 | 0.00 | 0.00 | 0.00 | 74 | 1019.7 |
| 20260904082538 | 78 | 194 | 0.0 | 2.0 | 0.00 | 0.00 | 0.00 | 74 | 1019.6 |
| 20260904082437 | 78 | 194 | 0.0 | 2.0 | 0.00 | 0.00 | 0.00 | 74 | 1019.5 |
| 20260904082339 | 78 | 194 | 0.0 | 2.0 | 0.00 | 0.00 | 0.00 | 74 | 1019.6 |
| 20260904082236 | 78 | 194 | 0.0 | 2.0 | 0.00 | 0.00 | 0.00 | 74 | 1019.6 |
| 20260904082138 | 78 | 194 | 0.0 | 2.0 | 0.00 | 0.00 | 0.00 | 74 | 1019.6 |
| 20260904082035 | 79 | 194 | 0.0 | 2.0 | 0.00 | 0.00 | 0.00 | 74 | 1019.7 |
| 20260904081934 | 79 | 194 | 0.0 | 2.0 | 0.00 | 0.00 | 0.00 | 73 | 1019.6 |
| 20260904081833 | 79 | 194 | 1.0 | 2.0 | 0.00 | 0.00 | 0.00 | 73 | 1019.6 |
| 20260904081756 | 79 | 194 | 1.0 | 2.0 | 0.00 | 0.00 | 0.00 | 73 | 1019.6 |
| 20260904081750 | 79 | 194 | 1.0 | 2.0 | 0.00 | 0.00 | 0.00 | 73 | 1019.6 |
| 20260904081738 | 79 | 194 | 1.0 | 2.0 | 0.00 | 0.00 | 0.00 | 73 | 1019.6 |
| 20260904081716 | 79 | 194 | 1.0 | 2.0 | 0.00 | 0.00 | 0.00 | 73 | 1019.6 |
| 20260904081335 | 79 | 207 | 1.0 | 2.0 | 0.00 | 0.00 | 0.00 | 73 | 1019.6 |
| 20260904081234 | 79 | 207 | 1.0 | 2.0 | 0.00 | 0.00 | 0.00 | 73 | 1019.6 |
| 20260904081134 | 79 | 207 | 1.0 | 2.0 | 0.00 | 0.00 | 0.00 | 73 | 1019.6 |
| 20260904081034 | 79 | 207 | 1.0 | 2.0 | 0.00 | 0.00 | 0.00 | 73 | 1019.6 |
| 20260904080934 | 79 | 207 | 1.0 | 2.0 | 0.00 | 0.00 | 0.00 | 73 | 1019.6 |
| 20260904080911 | 79 | 233 | 1.0 | 3.0 | 0.00 | 0.00 | 0.00 | 72 | 1019.6 |
| 20260904080900 | 79 | 233 | 1.0 | 3.0 | 0.00 | 0.00 | 0.00 | 72 | 1019.6 |
| 20260904080634 | 79 | 233 | 1.0 | 3.0 | 0.00 | 0.00 | 0.00 | 72 | 1019.6 |
| 20260904080606 | 79 | 233 | 2.0 | 3.0 | 0.00 | 0.00 | 0.00 | 72 | 1019.6 |
| 20260904080557 | 79 | 233 | 1.0 | 3.0 | 0.00 | 0.00 | 0.00 | 72 | 1019.6 |
| 20260904080405 | 80 | 233 | 2.0 | 3.0 | 0.00 | 0.00 | 0.00 | 72 | 1019.6 |
| 20260904080356 | 80 | 233 | 2.0 | 3.0 | 0.00 | 0.00 | 0.00 | 72 | 1019.6 |
| 20260904080133 | 80 | 233 | 2.0 | 3.0 | 0.00 | 0.00 | 0.00 | 72 | 1019.6 |
| 20260904080038 | 80 | 233 | 2.0 | 3.0 | 0.00 | 0.00 | 0.00 | 72 | 1019.6 |
| 20260904075933 | 80 | 233 | 2.0 | 3.0 | 0.00 | 0.00 | 0.00 | 72 | 1019.6 |
| 20260904075842 | 80 | 233 | 2.0 | 3.0 | 0.00 | 0.00 | 0.00 | 72 | 1019.6 |
| 20260904075736 | 80 | 205 | 2.0 | 3.0 | 0.00 | 0.00 | 0.00 | 71 | 1019.7 |
| 20260904075722 | 80 | 205 | 2.0 | 3.0 | 0.00 | 0.00 | 0.00 | 71 | 1019.6 |
| 20260904075701 | 80 | 205 | 2.0 | 3.0 | 0.00 | 0.00 | 0.00 | 71 | 1019.7 |
| 20260904075526 | 80 | 207 | 2.0 | 3.0 | 0.00 | 0.00 | 0.00 | 71 | 1019.7 |
| 20260904075512 | 80 | 207 | 2.0 | 3.0 | 0.00 | 0.00 | 0.00 | 71 | 1019.6 |
| 20260904075238 | 80 | 207 | 2.0 | 3.0 | 0.00 | 0.00 | 0.00 | 71 | 1019.6 |
| 20260904075135 | 80 | 207 | 1.0 | 3.0 | 0.00 | 0.00 | 0.00 | 71 | 1019.6 |
| 20260904075040 | 80 | 207 | 1.0 | 3.0 | 0.00 | 0.00 | 0.00 | 71 | 1019.7 |
| 20260904074937 | 80 | 207 | 1.0 | 3.0 | 0.00 | 0.00 | 0.00 | 71 | 1019.6 |
| 20260904074837 | 79 | 207 | 1.0 | 3.0 | 0.00 | 0.00 | 0.00 | 71 | 1019.6 |
| 20260904074734 | 79 | 207 | 1.0 | 2.0 | 0.00 | 0.00 | 0.00 | 71 | 1019.7 |
| 20260904074633 | 79 | 205 | 1.0 | 2.0 | 0.00 | 0.00 | 0.00 | 71 | 1019.7 |
| 20260904074624 | 79 | 205 | 1.0 | 2.0 | 0.00 | 0.00 | 0.00 | 71 | 1019.7 |
| 20260904074609 | 79 | 205 | 1.0 | 2.0 | 0.00 | 0.00 | 0.00 | 71 | 1019.6 |
| 20260904074341 | 79 | 205 | 1.0 | 2.0 | 0.00 | 0.00 | 0.00 | 71 | 1019.6 |
| 20260904074227 | 80 | 205 | 1.0 | 2.0 | 0.00 | 0.00 | 0.00 | 71 | 1019.7 |
| 20260904074127 | 80 | 205 | 1.0 | 2.0 | 0.00 | 0.00 | 0.00 | 71 | 1019.7 |
| 20260904074025 | 80 | 205 | 1.0 | 2.0 | 0.00 | 0.00 | 0.00 | 71 | 1019.7 |
| 20260904073926 | 80 | 205 | 1.0 | 2.0 | 0.00 | 0.00 | 0.00 | 71 | 1019.7 |
| 20260904073824 | 80 | 205 | 1.0 | 3.0 | 0.00 | 0.00 | 0.00 | 71 | 1019.7 |
| 20260904073722 | 80 | 205 | 1.0 | 3.0 | 0.00 | 0.00 | 0.00 | 71 | 1019.7 |
| 20260904073641 | 80 | 205 | 1.0 | 3.0 | 0.00 | 0.00 | 0.00 | 71 | 1019.8 |
| 20260904073625 | 80 | 205 | 1.0 | 3.0 | 0.00 | 0.00 | 0.00 | 71 | 1019.6 |
| 20260904073601 | 80 | 205 | 1.0 | 3.0 | 0.00 | 0.00 | 0.00 | 71 | 1019.7 |
| 20260904073423 | 80 | 205 | 1.0 | 3.0 | 0.00 | 0.00 | 0.00 | 71 | 1019.7 |
| 20260904073417 | 80 | 189 | 1.0 | 3.0 | 0.00 | 0.00 | 0.00 | 71 | 1019.8 |
| 20260904073411 | 80 | 188 | 1.0 | 3.0 | 0.00 | 0.00 | 0.00 | 71 | 1019.8 |
| 20260904073320 | 80 | 205 | 1.0 | 3.0 | 0.00 | 0.00 | 0.00 | 71 | 1019.8 |
| 20260904073256 | 80 | 205 | 1.0 | 3.0 | 0.00 | 0.00 | 0.00 | 71 | 1019.8 |
| 20260904073238 | 80 | 205 | 1.0 | 3.0 | 0.00 | 0.00 | 0.00 | 71 | 1019.8 |
| 20260904073150 | 80 | 205 | 1.0 | 3.0 | 0.00 | 0.00 | 0.00 | 71 | 1019.8 |
| 20260904072830 | 80 | 189 | 1.0 | 3.0 | 0.00 | 0.00 | 0.00 | 71 | 1019.8 |
| 20260904072515 | 80 | 178 | 1.0 | 3.0 | 0.00 | 0.00 | 0.00 | 71 | 1019.8 |
| 20260904072413 | 80 | 206 | 1.0 | 6.0 | 0.00 | 0.00 | 0.00 | 71 | 1019.8 |
| 20260904072311 | 80 | 202 | 1.0 | 6.0 | 0.00 | 0.00 | 0.00 | 71 | 1019.8 |
| 20260904072212 | 80 | 202 | 1.0 | 6.0 | 0.00 | 0.00 | 0.00 | 71 | 1019.8 |
| 20260904072109 | 80 | 202 | 1.0 | 6.0 | 0.00 | 0.00 | 0.00 | 71 | 1019.8 |
| 20260904072008 | 80 | 184 | 1.0 | 6.0 | 0.00 | 0.00 | 0.00 | 71 | 1019.8 |
| 20260904071922 | 80 | 202 | 1.0 | 6.0 | 0.00 | 0.00 | 0.00 | 70 | 1019.8 |
| 20260904071911 | 80 | 185 | 1.0 | 6.0 | 0.00 | 0.00 | 0.00 | 71 | 1019.8 |
| 20260904071904 | 80 | 223 | 1.0 | 6.0 | 0.00 | 0.00 | 0.00 | 71 | 1019.8 |
| 20260904071844 | 80 | 202 | 1.0 | 6.0 | 0.00 | 0.00 | 0.00 | 70 | 1019.8 |
| 20260904071507 | 80 | 223 | 1.0 | 6.0 | 0.00 | 0.00 | 0.00 | 71 | 1019.8 |
| 20260904071405 | 80 | 192 | 1.0 | 4.0 | 0.00 | 0.00 | 0.00 | 71 | 1019.9 |
| 20260904071336 | 80 | 192 | 1.0 | 5.0 | 0.00 | 0.00 | 0.00 | 71 | 1019.9 |
| 20260904071324 | 80 | 192 | 1.0 | 4.0 | 0.00 | 0.00 | 0.00 | 71 | 1019.8 |
| 20260904071104 | 80 | 190 | 1.0 | 5.0 | 0.00 | 0.00 | 0.00 | 71 | 1019.9 |
| 20260904071003 | 80 | 197 | 1.0 | 5.0 | 0.00 | 0.00 | 0.00 | 71 | 1019.9 |
| 20260904070904 | 80 | 196 | 1.0 | 5.0 | 0.00 | 0.00 | 0.00 | 71 | 1019.9 |
| 20260904070804 | 80 | 194 | 1.0 | 5.0 | 0.00 | 0.00 | 0.00 | 71 | 1019.9 |
| 20260904070704 | 80 | 193 | 1.0 | 5.0 | 0.00 | 0.00 | 0.00 | 71 | 1019.9 |
| 20260904070604 | 80 | 193 | 1.0 | 5.0 | 0.00 | 0.00 | 0.00 | 71 | 1019.8 |
| 20260904070503 | 80 | 193 | 1.0 | 5.0 | 0.00 | 0.00 | 0.00 | 71 | 1019.9 |
| 20260904070401 | 80 | 193 | 1.0 | 5.0 | 0.00 | 0.00 | 0.00 | 70 | 1019.9 |
| 20260904070334 | 80 | 213 | 1.0 | 5.0 | 0.00 | 0.00 | 0.00 | 71 | 1019.9 |
| 20260904070328 | 80 | 215 | 1.0 | 5.0 | 0.00 | 0.00 | 0.00 | 71 | 1019.8 |
| 20260904070319 | 80 | 173 | 1.0 | 5.0 | 0.00 | 0.00 | 0.00 | 71 | 1019.9 |
| 20260904070255 | 80 | 217 | 1.0 | 4.0 | 0.00 | 0.00 | 0.00 | 71 | 1019.9 |
| 20260904070140 | 80 | 217 | 1.0 | 5.0 | 0.00 | 0.00 | 0.00 | 71 | 1019.9 |
| 20260904070127 | 80 | 217 | 1.0 | 5.0 | 0.00 | 0.00 | 0.00 | 71 | 1019.9 |
| 20260904065935 | 80 | 209 | 1.0 | 5.0 | 0.00 | 0.00 | 0.00 | 71 | 1019.9 |
| 20260904065611 | 80 | 184 | 1.0 | 5.0 | 0.00 | 0.00 | 0.00 | 71 | 1019.9 |
| 20260904065557 | 80 | 155 | 1.0 | 5.0 | 0.00 | 0.00 | 0.00 | 71 | 1019.9 |
| 20260904065535 | 80 | 177 | 1.0 | 5.0 | 0.00 | 0.00 | 0.00 | 71 | 1019.9 |
| 20260904065412 | 80 | 184 | 1.0 | 5.0 | 0.00 | 0.00 | 0.00 | 71 | 1019.9 |
| 20260904065148 | 80 | 163 | 1.0 | 5.0 | 0.00 | 0.00 | 0.00 | 72 | 1019.9 |
| 20260904065049 | 80 | 200 | 1.0 | 5.0 | 0.00 | 0.00 | 0.00 | 72 | 1019.9 |
| 20260904064949 | 80 | 233 | 1.0 | 4.0 | 0.00 | 0.00 | 0.00 | 72 | 1019.9 |
| 20260904064849 | 80 | 235 | 1.0 | 4.0 | 0.00 | 0.00 | 0.00 | 72 | 1019.9 |
| 20260904064747 | 80 | 183 | 1.0 | 4.0 | 0.00 | 0.00 | 0.00 | 72 | 1019.9 |
| 20260904064649 | 80 | 183 | 1.0 | 4.0 | 0.00 | 0.00 | 0.00 | 72 | 1019.9 |
| 20260904064545 | 80 | 181 | 1.0 | 4.0 | 0.00 | 0.00 | 0.00 | 72 | 1019.9 |
| 20260904064446 | 80 | 178 | 1.0 | 4.0 | 0.00 | 0.00 | 0.00 | 72 | 1019.9 |
| 20260904064343 | 80 | 182 | 1.0 | 4.0 | 0.00 | 0.00 | 0.00 | 72 | 1019.9 |
| 20260904064316 | 80 | 181 | 1.0 | 4.0 | 0.00 | 0.00 | 0.00 | 72 | 1019.9 |
| 20260904064304 | 80 | 182 | 1.0 | 4.0 | 0.00 | 0.00 | 0.00 | 72 | 1019.9 |
| 20260904064044 | 80 | 230 | 1.0 | 3.0 | 0.00 | 0.00 | 0.00 | 72 | 1019.9 |
| 20260904063939 | 80 | 196 | 1.0 | 3.0 | 0.00 | 0.00 | 0.00 | 72 | 1019.9 |
| 20260904063840 | 80 | 196 | 1.0 | 3.0 | 0.00 | 0.00 | 0.00 | 72 | 1020.1 |
| 20260904063739 | 80 | 196 | 1.0 | 3.0 | 0.00 | 0.00 | 0.00 | 72 | 1020.1 |
| 20260904063641 | 80 | 195 | 1.0 | 3.0 | 0.00 | 0.00 | 0.00 | 72 | 1019.9 |
| 20260904063539 | 80 | 195 | 1.0 | 3.0 | 0.00 | 0.00 | 0.00 | 72 | 1020.1 |
| 20260904063437 | 80 | 195 | 1.0 | 3.0 | 0.00 | 0.00 | 0.00 | 72 | 1020.1 |
| 20260904063337 | 80 | 195 | 1.0 | 4.0 | 0.00 | 0.00 | 0.00 | 72 | 1020.1 |
| 20260904063308 | 80 | 205 | 1.0 | 4.0 | 0.00 | 0.00 | 0.00 | 72 | 1020.1 |
| 20260904063258 | 80 | 205 | 1.0 | 4.0 | 0.00 | 0.00 | 0.00 | 72 | 1020.1 |
| 20260904063037 | 80 | 130 | 1.0 | 4.0 | 0.00 | 0.00 | 0.00 | 72 | 1020.1 |
| 20260904062935 | 80 | 130 | 1.0 | 4.0 | 0.00 | 0.00 | 0.00 | 72 | 1020.1 |
| 20260904062837 | 80 | 130 | 1.0 | 4.0 | 0.00 | 0.00 | 0.00 | 72 | 1020.2 |
| 20260904062733 | 80 | 123 | 1.0 | 4.0 | 0.00 | 0.00 | 0.00 | 72 | 1020.2 |
| 20260904062703 | 80 | 215 | 1.0 | 4.0 | 0.00 | 0.00 | 0.00 | 72 | 1020.2 |
| 20260904062652 | 80 | 215 | 1.0 | 4.0 | 0.00 | 0.00 | 0.00 | 72 | 1020.1 |
| 20260904062426 | 80 | 215 | 1.0 | 4.0 | 0.00 | 0.00 | 0.00 | 72 | 1020.2 |
| 20260904062325 | 80 | 225 | 1.0 | 3.0 | 0.00 | 0.00 | 0.00 | 72 | 1020.2 |
| 20260904062226 | 80 | 223 | 1.0 | 3.0 | 0.00 | 0.00 | 0.00 | 72 | 1020.2 |
| 20260904062201 | 80 | 208 | 1.0 | 3.0 | 0.00 | 0.00 | 0.00 | 72 | 1020.2 |
| 20260904062156 | 80 | 208 | 1.0 | 3.0 | 0.00 | 0.00 | 0.00 | 72 | 1020.2 |
| 20260904062144 | 80 | 128 | 1.0 | 3.0 | 0.00 | 0.00 | 0.00 | 72 | 1020.2 |
| 20260904062123 | 80 | 208 | 1.0 | 3.0 | 0.00 | 0.00 | 0.00 | 72 | 1020.2 |
| 20260904061957 | 80 | 208 | 1.0 | 3.0 | 0.00 | 0.00 | 0.00 | 72 | 1020.2 |
| 20260904061620 | 80 | 208 | 1.0 | 3.0 | 0.00 | 0.00 | 0.00 | 72 | 1020.2 |
| 20260904061517 | 80 | 207 | 1.0 | 2.0 | 0.00 | 0.00 | 0.00 | 72 | 1020.2 |
| 20260904061417 | 80 | 207 | 1.0 | 2.0 | 0.00 | 0.00 | 0.00 | 72 | 1020.2 |
| 20260904061315 | 80 | 207 | 1.0 | 2.0 | 0.00 | 0.00 | 0.00 | 72 | 1020.2 |
| 20260904061216 | 80 | 207 | 1.0 | 3.0 | 0.00 | 0.00 | 0.00 | 72 | 1020.2 |
| 20260904061114 | 80 | 203 | 1.0 | 3.0 | 0.00 | 0.00 | 0.00 | 72 | 1020.2 |
| 20260904061007 | 80 | 203 | 1.0 | 3.0 | 0.00 | 0.00 | 0.00 | 72 | 1020.2 |
| 20260904060905 | 80 | 221 | 1.0 | 3.0 | 0.00 | 0.00 | 0.00 | 72 | 1020.2 |
| 20260904060839 | 80 | 224 | 0.0 | 3.0 | 0.00 | 0.00 | 0.00 | 72 | 1020.3 |
| 20260904060827 | 80 | 231 | 0.0 | 3.0 | 0.00 | 0.00 | 0.00 | 72 | 1020.2 |
| 20260904060603 | 80 | 161 | 1.0 | 3.0 | 0.00 | 0.00 | 0.00 | 72 | 1020.2 |
| 20260904060503 | 80 | 161 | 1.0 | 5.0 | 0.00 | 0.00 | 0.00 | 73 | 1020.3 |
| 20260904060401 | 80 | 140 | 1.0 | 5.0 | 0.00 | 0.00 | 0.00 | 73 | 1020.3 |
| 20260904060301 | 80 | 140 | 1.0 | 5.0 | 0.00 | 0.00 | 0.00 | 72 | 1020.3 |
| 20260904060237 | 80 | 255 | 0.0 | 5.0 | 0.00 | 0.00 | 0.00 | 72 | 1020.3 |
| 20260904060232 | 80 | 161 | 1.0 | 5.0 | 0.00 | 0.00 | 0.00 | 72 | 1020.3 |
| 20260904060226 | 80 | 161 | 1.0 | 5.0 | 0.00 | 0.00 | 0.00 | 72 | 1020.3 |
| 20260904060212 | 80 | 205 | 0.0 | 5.0 | 0.00 | 0.00 | 0.00 | 72 | 1020.3 |
| 20260904060154 | 80 | 259 | 0.0 | 5.0 | 0.00 | 0.00 | 0.00 | 72 | 1020.3 |
| 20260904055655 | 80 | 161 | 1.0 | 5.0 | 0.00 | 0.00 | 0.00 | 73 | 1020.4 |
| 20260904055554 | 80 | 161 | 1.0 | 5.0 | 0.00 | 0.00 | 0.00 | 73 | 1020.4 |
| 20260904055545 | 80 | 252 | 0.0 | 3.0 | 0.00 | 0.00 | 0.00 | 72 | 1020.4 |
| 20260904055541 | 80 | 252 | 0.0 | 3.0 | 0.00 | 0.00 | 0.00 | 72 | 1020.4 |
| 20260904055518 | 80 | 252 | 0.0 | 3.0 | 0.00 | 0.00 | 0.00 | 72 | 1020.4 |
| 20260904055141 | 80 | 200 | 1.0 | 3.0 | 0.00 | 0.00 | 0.00 | 73 | 1020.4 |
| 20260904055052 | 80 | 235 | 1.0 | 3.0 | 0.00 | 0.00 | 0.00 | 73 | 1020.4 |
| 20260904055042 | 80 | 200 | 1.0 | 3.0 | 0.00 | 0.00 | 0.00 | 73 | 1020.4 |
| 20260904055034 | 80 | 235 | 1.0 | 5.0 | 0.00 | 0.00 | 0.00 | 73 | 1020.4 |
| 20260904055016 | 80 | 205 | 1.0 | 3.0 | 0.00 | 0.00 | 0.00 | 73 | 1020.5 |
| 20260904054633 | 80 | 235 | 1.0 | 5.0 | 0.00 | 0.00 | 0.00 | 73 | 1020.4 |
| 20260904054537 | 80 | 196 | 1.0 | 5.0 | 0.00 | 0.00 | 0.00 | 73 | 1020.4 |
| 20260904054425 | 80 | 196 | 1.0 | 5.0 | 0.00 | 0.00 | 0.00 | 73 | 1020.4 |
| 20260904054358 | 80 | 196 | 1.0 | 5.0 | 0.00 | 0.00 | 0.00 | 73 | 1020.4 |
| 20260904054348 | 80 | 196 | 1.0 | 5.0 | 0.00 | 0.00 | 0.00 | 73 | 1020.5 |
| 20260904054125 | 80 | 211 | 1.0 | 5.0 | 0.00 | 0.00 | 0.00 | 73 | 1020.4 |
| 20260904054026 | 80 | 211 | 1.0 | 5.0 | 0.00 | 0.00 | 0.00 | 73 | 1020.4 |
| 20260904053915 | 80 | 105 | 1.0 | 5.0 | 0.00 | 0.00 | 0.00 | 73 | 1020.4 |
| 20260904053814 | 80 | 177 | 1.0 | 5.0 | 0.00 | 0.00 | 0.00 | 73 | 1020.4 |
| 20260904053716 | 80 | 227 | 1.0 | 3.0 | 0.00 | 0.00 | 0.00 | 73 | 1020.4 |
| 20260904053615 | 80 | 227 | 1.0 | 3.0 | 0.00 | 0.00 | 0.00 | 73 | 1020.4 |
| 20260904053515 | 80 | 227 | 1.0 | 3.0 | 0.00 | 0.00 | 0.00 | 73 | 1020.5 |
| 20260904053414 | 80 | 227 | 1.0 | 4.0 | 0.00 | 0.00 | 0.00 | 73 | 1020.4 |
| 20260904053314 | 80 | 232 | 1.0 | 4.0 | 0.00 | 0.00 | 0.00 | 73 | 1020.5 |
| 20260904053212 | 80 | 232 | 1.0 | 4.0 | 0.00 | 0.00 | 0.00 | 73 | 1020.5 |
| 20260904053112 | 80 | 232 | 1.0 | 4.0 | 0.00 | 0.00 | 0.00 | 73 | 1020.5 |
| 20260904053010 | 80 | 232 | 1.0 | 4.0 | 0.00 | 0.00 | 0.00 | 73 | 1020.5 |
| 20260904052905 | 80 | 232 | 1.0 | 4.0 | 0.00 | 0.00 | 0.00 | 73 | 1020.5 |
| 20260904052805 | 80 | 232 | 1.0 | 4.0 | 0.00 | 0.00 | 0.00 | 73 | 1020.5 |
| 20260904052705 | 80 | 190 | 1.0 | 4.0 | 0.00 | 0.00 | 0.00 | 73 | 1020.5 |
| 20260904052610 | 80 | 196 | 1.0 | 4.0 | 0.00 | 0.00 | 0.00 | 73 | 1020.5 |
| 20260904052504 | 80 | 196 | 1.0 | 4.0 | 0.00 | 0.00 | 0.00 | 73 | 1020.5 |
| 20260904052353 | 80 | 183 | 1.0 | 3.0 | 0.00 | 0.00 | 0.00 | 73 | 1020.5 |
| 20260904052255 | 80 | 190 | 1.0 | 3.0 | 0.00 | 0.00 | 0.00 | 73 | 1020.6 |
| 20260904052153 | 80 | 190 | 1.0 | 3.0 | 0.00 | 0.00 | 0.00 | 73 | 1020.6 |
| 20260904052051 | 80 | 190 | 1.0 | 3.0 | 0.00 | 0.00 | 0.00 | 73 | 1020.6 |
| 20260904051951 | 80 | 219 | 1.0 | 3.0 | 0.00 | 0.00 | 0.00 | 73 | 1020.6 |
| 20260904051919 | 80 | 219 | 1.0 | 3.0 | 0.00 | 0.00 | 0.00 | 73 | 1020.5 |
| 20260904051909 | 80 | 220 | 1.0 | 3.0 | 0.00 | 0.00 | 0.00 | 73 | 1020.5 |
| 20260904051647 | 80 | 219 | 1.0 | 3.0 | 0.00 | 0.00 | 0.00 | 73 | 1020.6 |
| 20260904051555 | 80 | 131 | 1.0 | 3.0 | 0.00 | 0.00 | 0.00 | 73 | 1020.5 |
| 20260904051444 | 80 | 131 | 1.0 | 3.0 | 0.00 | 0.00 | 0.00 | 72 | 1020.6 |
| 20260904051339 | 80 | 203 | 1.0 | 3.0 | 0.00 | 0.00 | 0.00 | 73 | 1020.5 |
| 20260904051240 | 80 | 214 | 1.0 | 3.0 | 0.00 | 0.00 | 0.00 | 72 | 1020.6 |
| 20260904051139 | 80 | 215 | 1.0 | 3.0 | 0.00 | 0.00 | 0.00 | 72 | 1020.6 |
| 20260904051116 | 80 | 215 | 1.0 | 3.0 | 0.00 | 0.00 | 0.00 | 72 | 1020.5 |
| 20260904051107 | 80 | 215 | 1.0 | 3.0 | 0.00 | 0.00 | 0.00 | 72 | 1020.6 |
| 20260904050905 | 80 | 187 | 1.0 | 3.0 | 0.00 | 0.00 | 0.00 | 72 | 1020.6 |
| 20260904050853 | 80 | 194 | 1.0 | 3.0 | 0.00 | 0.00 | 0.00 | 72 | 1020.5 |
| 20260904050629 | 80 | 215 | 1.0 | 3.0 | 0.00 | 0.00 | 0.00 | 72 | 1020.6 |
| 20260904050605 | 80 | 215 | 1.0 | 4.0 | 0.00 | 0.00 | 0.00 | 72 | 1020.6 |
| 20260904050556 | 80 | 215 | 1.0 | 3.0 | 0.00 | 0.00 | 0.00 | 72 | 1020.6 |
| 20260904050325 | 80 | 215 | 1.0 | 4.0 | 0.00 | 0.00 | 0.00 | 72 | 1020.7 |
| 20260904050223 | 80 | 215 | 1.0 | 4.0 | 0.00 | 0.00 | 0.00 | 72 | 1020.6 |
| 20260904050158 | 80 | 238 | 1.0 | 4.0 | 0.00 | 0.00 | 0.00 | 72 | 1020.6 |
| 20260904050147 | 80 | 238 | 1.0 | 4.0 | 0.00 | 0.00 | 0.00 | 72 | 1020.7 |
| 20260904045955 | 80 | 238 | 1.0 | 4.0 | 0.00 | 0.00 | 0.00 | 72 | 1020.6 |
| 20260904045944 | 80 | 238 | 1.0 | 4.0 | 0.00 | 0.00 | 0.00 | 72 | 1020.7 |
| 20260904045716 | 80 | 171 | 1.0 | 6.0 | 0.00 | 0.00 | 0.00 | 72 | 1020.7 |
| 20260904045618 | 80 | 169 | 1.0 | 6.0 | 0.00 | 0.00 | 0.00 | 72 | 1020.6 |
| 20260904045517 | 80 | 169 | 1.0 | 6.0 | 0.00 | 0.00 | 0.00 | 72 | 1020.7 |
| 20260904045417 | 80 | 167 | 1.0 | 6.0 | 0.00 | 0.00 | 0.00 | 72 | 1020.7 |
| 20260904045307 | 80 | 167 | 1.0 | 6.0 | 0.00 | 0.00 | 0.00 | 72 | 1020.6 |
| 20260904045206 | 81 | 164 | 1.0 | 6.0 | 0.00 | 0.00 | 0.00 | 72 | 1020.7 |
| 20260904045106 | 81 | 164 | 1.0 | 6.0 | 0.00 | 0.00 | 0.00 | 72 | 1020.7 |
| 20260904045034 | 81 | 164 | 1.0 | 6.0 | 0.00 | 0.00 | 0.00 | 72 | 1020.7 |
| 20260904045025 | 81 | 164 | 1.0 | 6.0 | 0.00 | 0.00 | 0.00 | 72 | 1020.6 |
| 20260904044804 | 81 | 194 | 1.0 | 5.0 | 0.00 | 0.00 | 0.00 | 71 | 1020.6 |
| 20260904044700 | 81 | 231 | 1.0 | 5.0 | 0.00 | 0.00 | 0.00 | 71 | 1020.7 |
| 20260904044601 | 81 | 163 | 1.0 | 5.0 | 0.00 | 0.00 | 0.00 | 71 | 1020.7 |
| 20260904044500 | 81 | 163 | 1.0 | 5.0 | 0.00 | 0.00 | 0.00 | 71 | 1020.6 |
| 20260904044357 | 81 | 163 | 1.0 | 5.0 | 0.00 | 0.00 | 0.00 | 71 | 1020.7 |
| 20260904044253 | 81 | 163 | 1.0 | 5.0 | 0.00 | 0.00 | 0.00 | 71 | 1020.7 |
| 20260904044222 | 81 | 212 | 1.0 | 5.0 | 0.00 | 0.00 | 0.00 | 71 | 1020.7 |
| 20260904044211 | 81 | 189 | 1.0 | 5.0 | 0.00 | 0.00 | 0.00 | 71 | 1020.6 |
| 20260904043951 | 81 | 212 | 1.0 | 5.0 | 0.00 | 0.00 | 0.00 | 70 | 1020.6 |
| 20260904043852 | 81 | 212 | 2.0 | 5.0 | 0.00 | 0.00 | 0.00 | 70 | 1020.7 |
| 20260904043738 | 81 | 212 | 1.0 | 5.0 | 0.00 | 0.00 | 0.00 | 70 | 1020.7 |
| 20260904043638 | 81 | 212 | 1.0 | 5.0 | 0.00 | 0.00 | 0.00 | 70 | 1020.7 |
| 20260904043538 | 82 | 212 | 1.0 | 5.0 | 0.00 | 0.00 | 0.00 | 70 | 1020.6 |
| 20260904043440 | 82 | 212 | 1.0 | 5.0 | 0.00 | 0.00 | 0.00 | 70 | 1020.6 |
| 20260904043338 | 82 | 193 | 1.0 | 5.0 | 0.00 | 0.00 | 0.00 | 70 | 1020.6 |
| 20260904043234 | 82 | 186 | 1.0 | 4.0 | 0.00 | 0.00 | 0.00 | 69 | 1020.6 |
| 20260904043133 | 82 | 190 | 1.0 | 5.0 | 0.00 | 0.00 | 0.00 | 69 | 1020.7 |
| 20260904043033 | 82 | 184 | 1.0 | 5.0 | 0.00 | 0.00 | 0.00 | 69 | 1020.6 |
| 20260904042956 | 82 | 205 | 2.0 | 5.0 | 0.00 | 0.00 | 0.00 | 68 | 1020.7 |
| 20260904042942 | 82 | 107 | 1.0 | 5.0 | 0.00 | 0.00 | 0.00 | 68 | 1020.7 |
| 20260904042933 | 82 | 199 | 1.0 | 5.0 | 0.00 | 0.00 | 0.00 | 69 | 1020.7 |
| 20260904042907 | 82 | 207 | 1.0 | 5.0 | 0.00 | 0.00 | 0.00 | 69 | 1020.7 |
| 20260904042600 | 82 | 224 | 2.0 | 6.0 | 0.00 | 0.00 | 0.00 | 68 | 1020.7 |
| 20260904042549 | 82 | 184 | 2.0 | 6.0 | 0.00 | 0.00 | 0.00 | 68 | 1020.7 |
| 20260904042325 | 82 | 235 | 2.0 | 6.0 | 0.00 | 0.00 | 0.00 | 68 | 1020.8 |
| 20260904042209 | 82 | 196 | 1.0 | 6.0 | 0.00 | 0.00 | 0.00 | 68 | 1020.7 |
| 20260904042110 | 82 | 194 | 1.0 | 6.0 | 0.00 | 0.00 | 0.00 | 68 | 1020.7 |
| 20260904042043 | 82 | 203 | 1.0 | 6.0 | 0.00 | 0.00 | 0.00 | 68 | 1020.7 |
| 20260904042032 | 82 | 180 | 1.0 | 6.0 | 0.00 | 0.00 | 0.00 | 68 | 1020.7 |
| 20260904041811 | 82 | 188 | 1.0 | 6.0 | 0.00 | 0.00 | 0.00 | 68 | 1020.7 |
| 20260904041713 | 82 | 196 | 1.0 | 6.0 | 0.00 | 0.00 | 0.00 | 68 | 1020.7 |
| 20260904041646 | 82 | 146 | 1.0 | 5.0 | 0.00 | 0.00 | 0.00 | 68 | 1020.8 |
| 20260904041634 | 82 | 204 | 1.0 | 5.0 | 0.00 | 0.00 | 0.00 | 68 | 1020.7 |
| 20260904041438 | 82 | 217 | 2.0 | 5.0 | 0.00 | 0.00 | 0.00 | 68 | 1020.8 |
| 20260904041428 | 82 | 146 | 1.0 | 5.0 | 0.00 | 0.00 | 0.00 | 68 | 1020.7 |
| 20260904041200 | 82 | 204 | 2.0 | 5.0 | 0.00 | 0.00 | 0.00 | 68 | 1020.7 |
| 20260904041102 | 82 | 204 | 2.0 | 5.0 | 0.00 | 0.00 | 0.00 | 68 | 1020.8 |
| 20260904041000 | 82 | 203 | 2.0 | 5.0 | 0.00 | 0.00 | 0.00 | 68 | 1020.8 |
| 20260904040859 | 82 | 176 | 2.0 | 6.0 | 0.00 | 0.00 | 0.00 | 68 | 1020.8 |
| 20260904040759 | 82 | 195 | 2.0 | 6.0 | 0.00 | 0.00 | 0.00 | 68 | 1020.8 |
| 20260904040654 | 82 | 195 | 2.0 | 6.0 | 0.00 | 0.00 | 0.00 | 68 | 1020.9 |
| 20260904040554 | 82 | 191 | 2.0 | 6.0 | 0.00 | 0.00 | 0.00 | 69 | 1020.8 |
| 20260904040454 | 82 | 224 | 2.0 | 6.0 | 0.00 | 0.00 | 0.00 | 69 | 1020.8 |
| 20260904040353 | 82 | 168 | 2.0 | 6.0 | 0.00 | 0.00 | 0.00 | 69 | 1020.9 |
| 20260904040253 | 82 | 167 | 2.0 | 6.0 | 0.00 | 0.00 | 0.00 | 69 | 1020.8 |
| 20260904040157 | 81 | 146 | 2.0 | 6.0 | 0.00 | 0.00 | 0.00 | 69 | 1020.9 |
| 20260904040050 | 81 | 150 | 2.0 | 6.0 | 0.00 | 0.00 | 0.00 | 69 | 1020.9 |
| 20260904035950 | 81 | 148 | 2.0 | 6.0 | 0.00 | 0.00 | 0.00 | 69 | 1020.9 |
| 20260904035905 | 81 | 210 | 2.0 | 4.0 | 0.00 | 0.00 | 0.00 | 69 | 1020.9 |
| 20260904035751 | 81 | 184 | 2.0 | 4.0 | 0.00 | 0.00 | 0.00 | 69 | 1020.9 |
| 20260904035658 | 81 | 227 | 2.0 | 4.0 | 0.00 | 0.00 | 0.00 | 69 | 1020.9 |
| 20260904035548 | 81 | 155 | 1.0 | 4.0 | 0.00 | 0.00 | 0.00 | 69 | 1020.9 |
| 20260904035449 | 81 | 165 | 1.0 | 4.0 | 0.00 | 0.00 | 0.00 | 69 | 1021.0 |
| 20260904035348 | 81 | 165 | 1.0 | 4.0 | 0.00 | 0.00 | 0.00 | 69 | 1021.0 |
| 20260904035248 | 81 | 158 | 1.0 | 4.0 | 0.00 | 0.00 | 0.00 | 70 | 1021.0 |
| 20260904035150 | 81 | 207 | 1.0 | 4.0 | 0.00 | 0.00 | 0.00 | 70 | 1021.0 |
| 20260904035056 | 81 | 156 | 1.0 | 4.0 | 0.00 | 0.00 | 0.00 | 70 | 1020.9 |
| 20260904034946 | 81 | 178 | 1.0 | 5.0 | 0.00 | 0.00 | 0.00 | 70 | 1021.0 |
| 20260904034847 | 81 | 126 | 1.0 | 5.0 | 0.00 | 0.00 | 0.00 | 69 | 1021.1 |
| 20260904034747 | 81 | 126 | 1.0 | 5.0 | 0.00 | 0.00 | 0.00 | 69 | 1021.0 |
| 20260904034646 | 81 | 200 | 1.0 | 5.0 | 0.00 | 0.00 | 0.00 | 69 | 1021.1 |
| 20260904034546 | 81 | 200 | 1.0 | 5.0 | 0.00 | 0.00 | 0.00 | 69 | 1021.1 |
| 20260904034447 | 81 | 203 | 1.0 | 5.0 | 0.00 | 0.00 | 0.00 | 69 | 1021.1 |
| 20260904034341 | 81 | 202 | 1.0 | 5.0 | 0.00 | 0.00 | 0.00 | 69 | 1021.1 |
| 20260904034241 | 81 | 208 | 1.0 | 5.0 | 0.00 | 0.00 | 0.00 | 69 | 1021.1 |
| 20260904034203 | 81 | 157 | 1.0 | 3.0 | 0.00 | 0.00 | 0.00 | 69 | 1021.1 |
| 20260904034159 | 81 | 135 | 1.0 | 3.0 | 0.00 | 0.00 | 0.00 | 69 | 1021.0 |
| 20260904034146 | 81 | 159 | 1.0 | 5.0 | 0.00 | 0.00 | 0.00 | 69 | 1021.0 |
| 20260904034122 | 81 | 161 | 1.0 | 5.0 | 0.00 | 0.00 | 0.00 | 69 | 1021.0 |
| 20260904033748 | 81 | 188 | 1.0 | 3.0 | 0.00 | 0.00 | 0.00 | 69 | 1021.1 |
| 20260904033636 | 81 | 188 | 1.0 | 3.0 | 0.00 | 0.00 | 0.00 | 68 | 1021.1 |
| 20260904033534 | 81 | 199 | 1.0 | 4.0 | 0.00 | 0.00 | 0.00 | 68 | 1021.1 |
| 20260904033435 | 81 | 215 | 1.0 | 4.0 | 0.00 | 0.00 | 0.00 | 68 | 1021.0 |
| 20260904033336 | 81 | 221 | 1.0 | 4.0 | 0.00 | 0.00 | 0.00 | 68 | 1021.0 |
| 20260904033235 | 81 | 225 | 1.0 | 4.0 | 0.00 | 0.00 | 0.00 | 68 | 1021.1 |
| 20260904033136 | 81 | 173 | 1.0 | 4.0 | 0.00 | 0.00 | 0.00 | 68 | 1021.1 |
| 20260904033035 | 81 | 88 | 1.0 | 4.0 | 0.00 | 0.00 | 0.00 | 68 | 1021.1 |
| 20260904032934 | 81 | 113 | 1.0 | 4.0 | 0.00 | 0.00 | 0.00 | 68 | 1021.1 |
| 20260904032836 | 81 | 101 | 1.0 | 4.0 | 0.00 | 0.00 | 0.00 | 69 | 1021.2 |
| 20260904032734 | 81 | 101 | 1.0 | 4.0 | 0.00 | 0.00 | 0.00 | 68 | 1021.1 |
| 20260904032636 | 81 | 183 | 1.0 | 4.0 | 0.00 | 0.00 | 0.00 | 68 | 1021.1 |
| 20260904032534 | 81 | 182 | 1.0 | 3.0 | 0.00 | 0.00 | 0.00 | 68 | 1021.1 |
| 20260904032509 | 81 | 113 | 0.0 | 3.0 | 0.00 | 0.00 | 0.00 | 68 | 1021.1 |
| 20260904032457 | 81 | 192 | 1.0 | 3.0 | 0.00 | 0.00 | 0.00 | 68 | 1021.2 |
| 20260904032317 | 82 | 177 | 0.0 | 3.0 | 0.00 | 0.00 | 0.00 | 68 | 1021.2 |
| 20260904032306 | 81 | 186 | 0.0 | 3.0 | 0.00 | 0.00 | 0.00 | 68 | 1021.1 |
| 20260904032030 | 82 | 176 | 1.0 | 3.0 | 0.00 | 0.00 | 0.00 | 67 | 1021.1 |
| 20260904031932 | 82 | 155 | 1.0 | 3.0 | 0.00 | 0.00 | 0.00 | 67 | 1021.1 |
| 20260904031906 | 82 | 152 | 1.0 | 3.0 | 0.00 | 0.00 | 0.00 | 67 | 1021.1 |
| 20260904031856 | 82 | 155 | 1.0 | 3.0 | 0.00 | 0.00 | 0.00 | 67 | 1021.1 |
| 20260904031629 | 82 | 152 | 1.0 | 6.0 | 0.00 | 0.00 | 0.00 | 67 | 1021.2 |
| 20260904031524 | 82 | 153 | 1.0 | 6.0 | 0.00 | 0.00 | 0.00 | 67 | 1021.1 |
| 20260904031422 | 82 | 96 | 1.0 | 6.0 | 0.00 | 0.00 | 0.00 | 67 | 1021.1 |
| 20260904031333 | 82 | 96 | 1.0 | 6.0 | 0.00 | 0.00 | 0.00 | 67 | 1021.1 |
| 20260904031224 | 82 | 96 | 1.0 | 6.0 | 0.00 | 0.00 | 0.00 | 67 | 1021.2 |
| 20260904031155 | 82 | 96 | 1.0 | 6.0 | 0.00 | 0.00 | 0.00 | 66 | 1021.2 |
| 20260904031145 | 82 | 96 | 1.0 | 6.0 | 0.00 | 0.00 | 0.00 | 66 | 1021.2 |
| 20260904030922 | 82 | 96 | 1.0 | 6.0 | 0.00 | 0.00 | 0.00 | 66 | 1021.3 |
| 20260904030821 | 82 | 135 | 1.0 | 6.0 | 0.00 | 0.00 | 0.00 | 66 | 1021.2 |
| 20260904030756 | 82 | 99 | 1.0 | 6.0 | 0.00 | 0.00 | 0.00 | 66 | 1021.3 |
| 20260904030747 | 82 | 136 | 1.0 | 6.0 | 0.00 | 0.00 | 0.00 | 66 | 1021.2 |
| 20260904030553 | 82 | 133 | 1.0 | 4.0 | 0.00 | 0.00 | 0.00 | 66 | 1021.3 |
| 20260904030543 | 82 | 119 | 1.0 | 4.0 | 0.00 | 0.00 | 0.00 | 66 | 1021.2 |
| 20260904030347 | 82 | 97 | 1.0 | 4.0 | 0.00 | 0.00 | 0.00 | 66 | 1021.2 |
| 20260904030340 | 82 | 159 | 1.0 | 4.0 | 0.00 | 0.00 | 0.00 | 66 | 1021.2 |
| 20260904030326 | 82 | 132 | 1.0 | 4.0 | 0.00 | 0.00 | 0.00 | 66 | 1021.2 |
| 20260904030303 | 82 | 90 | 1.0 | 4.0 | 0.00 | 0.00 | 0.00 | 66 | 1021.2 |
| 20260904025919 | 82 | 192 | 1.0 | 4.0 | 0.00 | 0.00 | 0.00 | 66 | 1021.2 |
| 20260904025822 | 82 | 186 | 1.0 | 4.0 | 0.00 | 0.00 | 0.00 | 66 | 1021.2 |
| 20260904025720 | 82 | 119 | 1.0 | 4.0 | 0.00 | 0.00 | 0.00 | 66 | 1021.2 |
| 20260904025653 | 82 | 176 | 1.0 | 4.0 | 0.00 | 0.00 | 0.00 | 66 | 1021.3 |
| 20260904025642 | 82 | 149 | 1.0 | 4.0 | 0.00 | 0.00 | 0.00 | 66 | 1021.2 |
| 20260904025451 | 82 | 99 | 1.0 | 3.0 | 0.00 | 0.00 | 0.00 | 66 | 1021.3 |
| 20260904025439 | 82 | 107 | 1.0 | 3.0 | 0.00 | 0.00 | 0.00 | 66 | 1021.3 |
| 20260904025306 | 82 | 129 | 0.0 | 2.0 | 0.00 | 0.00 | 0.00 | 65 | 1021.3 |
| 20260904025250 | 82 | 128 | 0.0 | 3.0 | 0.00 | 0.00 | 0.00 | 66 | 1021.2 |
| 20260904025019 | 82 | 129 | 0.0 | 2.0 | 0.00 | 0.00 | 0.00 | 66 | 1021.3 |
| 20260904024919 | 82 | 129 | 0.0 | 2.0 | 0.00 | 0.00 | 0.00 | 66 | 1021.3 |
| 20260904024821 | 82 | 129 | 0.0 | 2.0 | 0.00 | 0.00 | 0.00 | 65 | 1021.2 |
| 20260904024721 | 82 | 129 | 0.0 | 2.0 | 0.00 | 0.00 | 0.00 | 65 | 1021.2 |
| 20260904024621 | 82 | 129 | 0.0 | 2.0 | 0.00 | 0.00 | 0.00 | 65 | 1021.2 |
| 20260904024520 | 82 | 129 | 0.0 | 2.0 | 0.00 | 0.00 | 0.00 | 65 | 1021.3 |
| 20260904024455 | 82 | 128 | 0.0 | 2.0 | 0.00 | 0.00 | 0.00 | 65 | 1021.3 |
| 20260904024444 | 82 | 128 | 0.0 | 2.0 | 0.00 | 0.00 | 0.00 | 65 | 1021.3 |
| 20260904024249 | 82 | 128 | 0.0 | 2.0 | 0.00 | 0.00 | 0.00 | 65 | 1021.3 |
| 20260904024238 | 82 | 128 | 0.0 | 2.0 | 0.00 | 0.00 | 0.00 | 65 | 1021.3 |
| 20260904024016 | 82 | 127 | 0.0 | 1.0 | 0.00 | 0.00 | 0.00 | 65 | 1021.3 |
| 20260904023913 | 82 | 127 | 0.0 | 1.0 | 0.00 | 0.00 | 0.00 | 65 | 1021.3 |
| 20260904023813 | 82 | 127 | 0.0 | 1.0 | 0.00 | 0.00 | 0.00 | 65 | 1021.3 |
| 20260904023711 | 82 | 127 | 0.0 | 1.0 | 0.00 | 0.00 | 0.00 | 65 | 1021.3 |
| 20260904023641 | 82 | 127 | 0.0 | 1.0 | 0.00 | 0.00 | 0.00 | 65 | 1021.2 |
| 20260904023631 | 82 | 127 | 0.0 | 1.0 | 0.00 | 0.00 | 0.00 | 65 | 1021.3 |
| 20260904023404 | 82 | 127 | 0.0 | 2.0 | 0.00 | 0.00 | 0.00 | 65 | 1021.2 |
| 20260904023305 | 82 | 126 | 0.0 | 3.0 | 0.00 | 0.00 | 0.00 | 65 | 1021.2 |
| 20260904023203 | 82 | 126 | 0.0 | 3.0 | 0.00 | 0.00 | 0.00 | 65 | 1021.2 |
| 20260904023104 | 82 | 126 | 0.0 | 3.0 | 0.00 | 0.00 | 0.00 | 65 | 1021.1 |
| 20260904023005 | 82 | 221 | 0.0 | 3.0 | 0.00 | 0.00 | 0.00 | 65 | 1021.1 |
| 20260904022904 | 82 | 221 | 0.0 | 3.0 | 0.00 | 0.00 | 0.00 | 65 | 1021.2 |
| 20260904022803 | 82 | 190 | 0.0 | 3.0 | 0.00 | 0.00 | 0.00 | 65 | 1021.2 |
| 20260904022703 | 82 | 190 | 0.0 | 3.0 | 0.00 | 0.00 | 0.00 | 65 | 1021.2 |
| 20260904022601 | 82 | 191 | 0.0 | 3.0 | 0.00 | 0.00 | 0.00 | 65 | 1021.1 |
| 20260904022459 | 82 | 191 | 0.0 | 3.0 | 0.00 | 0.00 | 0.00 | 65 | 1021.2 |
| 20260904022355 | 82 | 202 | 0.0 | 1.0 | 0.00 | 0.00 | 0.00 | 65 | 1021.2 |
| 20260904022321 | 82 | 202 | 0.0 | 2.0 | 0.00 | 0.00 | 0.00 | 65 | 1021.2 |
| 20260904022312 | 82 | 202 | 0.0 | 2.0 | 0.00 | 0.00 | 0.00 | 65 | 1021.2 |
| 20260904022050 | 82 | 202 | 0.0 | 2.0 | 0.00 | 0.00 | 0.00 | 65 | 1021.1 |
| 20260904021951 | 82 | 202 | 0.0 | 2.0 | 0.00 | 0.00 | 0.00 | 65 | 1021.1 |
| 20260904021921 | 82 | 202 | 0.0 | 2.0 | 0.00 | 0.00 | 0.00 | 65 | 1021.0 |
| 20260904021911 | 82 | 202 | 0.0 | 2.0 | 0.00 | 0.00 | 0.00 | 65 | 1021.1 |
| 20260904021649 | 82 | 202 | 0.0 | 2.0 | 0.00 | 0.00 | 0.00 | 65 | 1021.0 |
| 20260904021548 | 82 | 202 | 0.0 | 2.0 | 0.00 | 0.00 | 0.00 | 65 | 1021.1 |
| 20260904021448 | 82 | 202 | 0.0 | 2.0 | 0.00 | 0.00 | 0.00 | 65 | 1021.1 |
| 20260904021346 | 82 | 202 | 0.0 | 2.0 | 0.00 | 0.00 | 0.00 | 65 | 1021.0 |
| 20260904021243 | 82 | 202 | 0.0 | 2.0 | 0.00 | 0.00 | 0.00 | 65 | 1021.0 |
| 20260904021144 | 82 | 202 | 0.0 | 2.0 | 0.00 | 0.00 | 0.00 | 65 | 1021.0 |
| 20260904021042 | 82 | 202 | 0.0 | 2.0 | 0.00 | 0.00 | 0.00 | 65 | 1021.0 |
| 20260904020939 | 82 | 202 | 0.0 | 2.0 | 0.00 | 0.00 | 0.00 | 65 | 1021.1 |
| 20260904020841 | 82 | 202 | 0.0 | 2.0 | 0.00 | 0.00 | 0.00 | 65 | 1021.1 |
| 20260904020738 | 82 | 202 | 0.0 | 2.0 | 0.00 | 0.00 | 0.00 | 65 | 1021.0 |
| 20260904020637 | 82 | 202 | 0.0 | 2.0 | 0.00 | 0.00 | 0.00 | 65 | 1021.0 |
| 20260904020537 | 82 | 202 | 0.0 | 2.0 | 0.00 | 0.00 | 0.00 | 65 | 1021.1 |
| 20260904020435 | 82 | 202 | 0.0 | 2.0 | 0.00 | 0.00 | 0.00 | 65 | 1021.0 |
| 20260904020337 | 82 | 202 | 0.0 | 2.0 | 0.00 | 0.00 | 0.00 | 65 | 1021.0 |
| 20260904020235 | 82 | 202 | 0.0 | 2.0 | 0.00 | 0.00 | 0.00 | 65 | 1020.9 |
| 20260904020134 | 82 | 202 | 0.0 | 2.0 | 0.00 | 0.00 | 0.00 | 65 | 1020.9 |
| 20260904020034 | 82 | 202 | 0.0 | 2.0 | 0.00 | 0.00 | 0.00 | 65 | 1021.0 |
| 20260904015934 | 82 | 202 | 0.0 | 2.0 | 0.00 | 0.00 | 0.00 | 65 | 1020.9 |
| 20260904015836 | 82 | 202 | 0.0 | 2.0 | 0.00 | 0.00 | 0.00 | 65 | 1020.9 |
| 20260904015734 | 82 | 202 | 0.0 | 3.0 | 0.00 | 0.00 | 0.00 | 65 | 1020.9 |
| 20260904015634 | 82 | 202 | 1.0 | 3.0 | 0.00 | 0.00 | 0.00 | 65 | 1020.9 |
| 20260904015629 | 82 | 202 | 1.0 | 3.0 | 0.00 | 0.00 | 0.00 | 65 | 1020.8 |
| 20260904015621 | 82 | 202 | 1.0 | 3.0 | 0.00 | 0.00 | 0.00 | 65 | 1020.9 |
| 20260904015605 | 82 | 202 | 1.0 | 3.0 | 0.00 | 0.00 | 0.00 | 65 | 1020.9 |
| 20260904015431 | 82 | 202 | 1.0 | 3.0 | 0.00 | 0.00 | 0.00 | 65 | 1020.9 |
| 20260904015318 | 82 | 202 | 1.0 | 4.0 | 0.00 | 0.00 | 0.00 | 65 | 1020.8 |
| 20260904015306 | 82 | 202 | 1.0 | 3.0 | 0.00 | 0.00 | 0.00 | 65 | 1020.8 |
| 20260904015244 | 82 | 202 | 1.0 | 3.0 | 0.00 | 0.00 | 0.00 | 65 | 1020.8 |
| 20260904014832 | 82 | 202 | 1.0 | 4.0 | 0.00 | 0.00 | 0.00 | 65 | 1020.8 |
| 20260904014815 | 82 | 196 | 1.0 | 4.0 | 0.00 | 0.00 | 0.00 | 65 | 1020.8 |
| 20260904014801 | 82 | 196 | 1.0 | 4.0 | 0.00 | 0.00 | 0.00 | 65 | 1020.8 |
| 20260904014616 | 82 | 161 | 1.0 | 4.0 | 0.00 | 0.00 | 0.00 | 65 | 1020.8 |
| 20260904014602 | 82 | 196 | 1.0 | 4.0 | 0.00 | 0.00 | 0.00 | 65 | 1020.8 |
| 20260904014330 | 82 | 161 | 1.0 | 4.0 | 0.00 | 0.00 | 0.00 | 65 | 1020.7 |
| 20260904014237 | 82 | 161 | 1.0 | 4.0 | 0.00 | 0.00 | 0.00 | 65 | 1020.7 |
| 20260904014129 | 82 | 161 | 1.0 | 4.0 | 0.00 | 0.00 | 0.00 | 65 | 1020.8 |
| 20260904014031 | 82 | 161 | 1.0 | 4.0 | 0.00 | 0.00 | 0.00 | 65 | 1020.7 |
| 20260904013931 | 82 | 160 | 1.0 | 4.0 | 0.00 | 0.00 | 0.00 | 65 | 1020.7 |
| 20260904013830 | 82 | 160 | 1.0 | 4.0 | 0.00 | 0.00 | 0.00 | 65 | 1020.6 |
| 20260904013730 | 82 | 160 | 1.0 | 4.0 | 0.00 | 0.00 | 0.00 | 65 | 1020.6 |
| 20260904013631 | 83 | 136 | 1.0 | 3.0 | 0.00 | 0.00 | 0.00 | 64 | 1020.6 |
| 20260904013518 | 82 | 136 | 1.0 | 3.0 | 0.00 | 0.00 | 0.00 | 64 | 1020.6 |
| 20260904013418 | 82 | 136 | 1.0 | 3.0 | 0.00 | 0.00 | 0.00 | 64 | 1020.6 |
| 20260904013350 | 82 | 135 | 1.0 | 2.0 | 0.00 | 0.00 | 0.00 | 64 | 1020.6 |
| 20260904013339 | 82 | 135 | 1.0 | 2.0 | 0.00 | 0.00 | 0.00 | 64 | 1020.6 |
| 20260904013147 | 82 | 135 | 1.0 | 3.0 | 0.00 | 0.00 | 0.00 | 64 | 1020.6 |
| 20260904013136 | 82 | 135 | 1.0 | 2.0 | 0.00 | 0.00 | 0.00 | 64 | 1020.6 |
| 20260904012917 | 82 | 135 | 0.0 | 3.0 | 0.00 | 0.00 | 0.00 | 64 | 1020.7 |
| 20260904012818 | 82 | 133 | 0.0 | 3.0 | 0.00 | 0.00 | 0.00 | 65 | 1020.6 |
| 20260904012718 | 82 | 133 | 0.0 | 3.0 | 0.00 | 0.00 | 0.00 | 65 | 1020.6 |
| 20260904012618 | 82 | 209 | 0.0 | 3.0 | 0.00 | 0.00 | 0.00 | 65 | 1020.6 |
| 20260904012518 | 82 | 198 | 0.0 | 3.0 | 0.00 | 0.00 | 0.00 | 65 | 1020.6 |
| 20260904012418 | 82 | 197 | 0.0 | 3.0 | 0.00 | 0.00 | 0.00 | 65 | 1020.6 |
| 20260904012318 | 82 | 199 | 0.0 | 3.0 | 0.00 | 0.00 | 0.00 | 65 | 1020.6 |
| 20260904012218 | 82 | 199 | 0.0 | 4.0 | 0.00 | 0.00 | 0.00 | 65 | 1020.7 |
| 20260904012119 | 82 | 198 | 0.0 | 4.0 | 0.00 | 0.00 | 0.00 | 65 | 1020.6 |
| 20260904012056 | 82 | 172 | 0.0 | 4.0 | 0.00 | 0.00 | 0.00 | 65 | 1020.6 |
| 20260904012048 | 82 | 132 | 0.0 | 4.0 | 0.00 | 0.00 | 0.00 | 65 | 1020.6 |
| 20260904011818 | 82 | 172 | 0.0 | 4.0 | 0.00 | 0.00 | 0.00 | 65 | 1020.6 |
| 20260904011741 | 82 | 178 | 0.0 | 4.0 | 0.00 | 0.00 | 0.00 | 65 | 1020.6 |
| 20260904011732 | 82 | 178 | 0.0 | 4.0 | 0.00 | 0.00 | 0.00 | 65 | 1020.6 |
| 20260904011518 | 82 | 177 | 0.0 | 4.0 | 0.00 | 0.00 | 0.00 | 65 | 1020.6 |
| 20260904011413 | 83 | 178 | 0.0 | 4.0 | 0.00 | 0.00 | 0.00 | 65 | 1020.6 |
| 20260904011347 | 82 | 168 | 0.0 | 2.0 | 0.00 | 0.00 | 0.00 | 65 | 1020.6 |
| 20260904011338 | 82 | 178 | 0.0 | 4.0 | 0.00 | 0.00 | 0.00 | 65 | 1020.6 |
| 20260904011115 | 83 | 168 | 0.0 | 2.0 | 0.00 | 0.00 | 0.00 | 65 | 1020.6 |
| 20260904011014 | 82 | 168 | 0.0 | 2.0 | 0.00 | 0.00 | 0.00 | 65 | 1020.5 |
| 20260904010916 | 83 | 168 | 0.0 | 2.0 | 0.00 | 0.00 | 0.00 | 64 | 1020.6 |
| 20260904010815 | 83 | 200 | 0.0 | 2.0 | 0.00 | 0.00 | 0.00 | 64 | 1020.5 |
| 20260904010751 | 83 | 202 | 0.0 | 2.0 | 0.00 | 0.00 | 0.00 | 64 | 1020.5 |
| 20260904010741 | 83 | 200 | 0.0 | 2.0 | 0.00 | 0.00 | 0.00 | 64 | 1020.5 |
| 20260904010513 | 83 | 202 | 0.0 | 2.0 | 0.00 | 0.00 | 0.00 | 64 | 1020.5 |
| 20260904010414 | 83 | 202 | 0.0 | 2.0 | 0.00 | 0.00 | 0.00 | 64 | 1020.5 |
| 20260904010319 | 83 | 202 | 0.0 | 2.0 | 0.00 | 0.00 | 0.00 | 64 | 1020.5 |
| 20260904010215 | 83 | 202 | 0.0 | 2.0 | 0.00 | 0.00 | 0.00 | 64 | 1020.5 |
| 20260904010115 | 83 | 202 | 0.0 | 3.0 | 0.00 | 0.00 | 0.00 | 64 | 1020.4 |
| 20260904010052 | 83 | 202 | 0.0 | 3.0 | 0.00 | 0.00 | 0.00 | 64 | 1020.4 |
| 20260904010049 | 83 | 202 | 0.0 | 3.0 | 0.00 | 0.00 | 0.00 | 64 | 1020.4 |
| 20260904010036 | 83 | 202 | 0.0 | 3.0 | 0.00 | 0.00 | 0.00 | 64 | 1020.4 |
| 20260904010016 | 83 | 202 | 0.0 | 3.0 | 0.00 | 0.00 | 0.00 | 64 | 1020.4 |
| 20260904005849 | 83 | 202 | 0.0 | 3.0 | 0.00 | 0.00 | 0.00 | 64 | 1020.4 |
| 20260904005516 | 83 | 202 | 0.0 | 3.0 | 0.00 | 0.00 | 0.00 | 64 | 1020.4 |
| 20260904005419 | 83 | 202 | 0.0 | 3.0 | 0.00 | 0.00 | 0.00 | 64 | 1020.3 |
| 20260904005315 | 83 | 200 | 0.0 | 3.0 | 0.00 | 0.00 | 0.00 | 64 | 1020.4 |
| 20260904005213 | 83 | 200 | 0.0 | 3.0 | 0.00 | 0.00 | 0.00 | 64 | 1020.3 |
| 20260904005114 | 83 | 200 | 0.0 | 3.0 | 0.00 | 0.00 | 0.00 | 64 | 1020.3 |
| 20260904005014 | 83 | 200 | 0.0 | 3.0 | 0.00 | 0.00 | 0.00 | 64 | 1020.3 |
| 20260904004915 | 83 | 200 | 0.0 | 3.0 | 0.00 | 0.00 | 0.00 | 63 | 1020.3 |
| 20260904004813 | 83 | 200 | 0.0 | 3.0 | 0.00 | 0.00 | 0.00 | 64 | 1020.3 |
| 20260904004715 | 83 | 200 | 0.0 | 3.0 | 0.00 | 0.00 | 0.00 | 63 | 1020.3 |
| 20260904004613 | 83 | 201 | 0.0 | 1.0 | 0.00 | 0.00 | 0.00 | 64 | 1020.3 |
| 20260904004514 | 83 | 201 | 0.0 | 2.0 | 0.00 | 0.00 | 0.00 | 64 | 1020.3 |
| 20260904004414 | 83 | 201 | 0.0 | 2.0 | 0.00 | 0.00 | 0.00 | 63 | 1020.3 |
| 20260904004345 | 83 | 201 | 0.0 | 2.0 | 0.00 | 0.00 | 0.00 | 63 | 1020.3 |
| 20260904004335 | 83 | 201 | 0.0 | 2.0 | 0.00 | 0.00 | 0.00 | 64 | 1020.3 |
| 20260904004114 | 83 | 201 | 0.0 | 2.0 | 0.00 | 0.00 | 0.00 | 63 | 1020.3 |
| 20260904004050 | 83 | 201 | 0.0 | 2.0 | 0.00 | 0.00 | 0.00 | 63 | 1020.3 |
| 20260904004039 | 83 | 201 | 0.0 | 2.0 | 0.00 | 0.00 | 0.00 | 63 | 1020.3 |
| 20260904003813 | 83 | 201 | 0.0 | 2.0 | 0.00 | 0.00 | 0.00 | 63 | 1020.3 |
| 20260904003715 | 83 | 201 | 0.0 | 2.0 | 0.00 | 0.00 | 0.00 | 64 | 1020.3 |
| 20260904003615 | 83 | 201 | 0.0 | 2.0 | 0.00 | 0.00 | 0.00 | 64 | 1020.3 |
| 20260904003553 | 83 | 201 | 0.0 | 2.0 | 0.00 | 0.00 | 0.00 | 64 | 1020.2 |
| 20260904003541 | 83 | 201 | 0.0 | 2.0 | 0.00 | 0.00 | 0.00 | 64 | 1020.2 |
| 20260904003313 | 83 | 201 | 0.0 | 2.0 | 0.00 | 0.00 | 0.00 | 64 | 1020.2 |
| 20260904003213 | 84 | 201 | 0.0 | 2.0 | 0.00 | 0.00 | 0.00 | 63 | 1020.2 |
| 20260904003113 | 84 | 201 | 0.0 | 2.0 | 0.00 | 0.00 | 0.00 | 63 | 1019.9 |
| 20260904003045 | 84 | 200 | 0.0 | 3.0 | 0.00 | 0.00 | 0.00 | 63 | 1019.9 |
| 20260904003034 | 84 | 201 | 0.0 | 2.0 | 0.00 | 0.00 | 0.00 | 63 | 1019.9 |
| 20260904002813 | 84 | 200 | 0.0 | 3.0 | 0.00 | 0.00 | 0.00 | 63 | 1019.9 |
| 20260904002711 | 84 | 199 | 0.0 | 3.0 | 0.00 | 0.00 | 0.00 | 63 | 1019.9 |
| 20260904002611 | 84 | 199 | 0.0 | 3.0 | 0.00 | 0.00 | 0.00 | 63 | 1019.9 |
| 20260904002543 | 84 | 200 | 0.0 | 3.0 | 0.00 | 0.00 | 0.00 | 63 | 1019.9 |
| 20260904002537 | 84 | 200 | 0.0 | 3.0 | 0.00 | 0.00 | 0.00 | 63 | 1019.9 |
| 20260904002523 | 84 | 199 | 0.0 | 3.0 | 0.00 | 0.00 | 0.00 | 63 | 1019.9 |
| 20260904002501 | 84 | 200 | 0.0 | 3.0 | 0.00 | 0.00 | 0.00 | 63 | 1019.9 |
| 20260904002034 | 84 | 175 | 0.0 | 2.0 | 0.00 | 0.00 | 0.00 | 63 | 1019.9 |
| 20260904002024 | 84 | 193 | 0.0 | 3.0 | 0.00 | 0.00 | 0.00 | 63 | 1019.9 |
| 20260904001802 | 84 | 175 | 0.0 | 2.0 | 0.00 | 0.00 | 0.00 | 62 | 1019.9 |
| 20260904001655 | 84 | 175 | 0.0 | 2.0 | 0.00 | 0.00 | 0.00 | 62 | 1019.9 |
| 20260904001552 | 84 | 175 | 0.0 | 3.0 | 0.00 | 0.00 | 0.00 | 62 | 1019.9 |
| 20260904001524 | 84 | 180 | 0.0 | 3.0 | 0.00 | 0.00 | 0.00 | 62 | 1019.9 |
| 20260904001513 | 84 | 180 | 0.0 | 3.0 | 0.00 | 0.00 | 0.00 | 62 | 1019.9 |
| 20260904001247 | 84 | 180 | 0.0 | 3.0 | 0.00 | 0.00 | 0.00 | 62 | 1019.9 |
| 20260904001139 | 84 | 180 | 0.0 | 3.0 | 0.00 | 0.00 | 0.00 | 62 | 1019.9 |
| 20260904001041 | 84 | 180 | 1.0 | 3.0 | 0.00 | 0.00 | 0.00 | 62 | 1019.8 |
| 20260904000939 | 84 | 180 | 1.0 | 3.0 | 0.00 | 0.00 | 0.00 | 62 | 1019.9 |
| 20260904000913 | 85 | 180 | 1.0 | 3.0 | 0.00 | 0.00 | 0.00 | 62 | 1019.9 |
| 20260904000903 | 84 | 180 | 1.0 | 3.0 | 0.00 | 0.00 | 0.00 | 62 | 1019.8 |
| 20260904000640 | 85 | 180 | 1.0 | 3.0 | 0.00 | 0.00 | 0.00 | 62 | 1019.9 |
| 20260904000539 | 85 | 178 | 1.0 | 3.0 | 0.00 | 0.00 | 0.00 | 62 | 1019.9 |
| 20260904000440 | 85 | 178 | 1.0 | 3.0 | 0.00 | 0.00 | 0.00 | 62 | 1019.9 |
| 20260904000337 | 85 | 178 | 1.0 | 3.0 | 0.00 | 0.00 | 0.00 | 62 | 1019.9 |
| 20260904000234 | 85 | 178 | 1.0 | 3.0 | 0.00 | 0.00 | 0.00 | 62 | 1019.9 |
| 20260904000127 | 85 | 178 | 1.0 | 3.0 | 0.00 | 0.00 | 0.00 | 62 | 1019.9 |
| 20260904000023 | 85 | 178 | 1.0 | 3.0 | 0.00 | 0.00 | 0.00 | 62 | 1019.9 |
| 20260903235923 | 85 | 178 | 1.0 | 3.0 | 0.00 | 0.00 | 0.00 | 61 | 1019.9 |
| 20260903235821 | 85 | 178 | 1.0 | 3.0 | 0.00 | 0.00 | 0.00 | 61 | 1019.9 |
| 20260903235720 | 85 | 178 | 1.0 | 3.0 | 0.00 | 0.00 | 0.00 | 61 | 1019.9 |
| 20260903235616 | 85 | 178 | 1.0 | 4.0 | 0.00 | 0.00 | 0.00 | 61 | 1020.1 |
| 20260903235547 | 85 | 178 | 1.0 | 4.0 | 0.00 | 0.00 | 0.00 | 61 | 1020.1 |
| 20260903235536 | 85 | 178 | 1.0 | 4.0 | 0.00 | 0.00 | 0.00 | 61 | 1020.1 |
| 20260903235313 | 85 | 178 | 0.0 | 4.0 | 0.00 | 0.00 | 0.00 | 61 | 1020.1 |
| 20260903235212 | 85 | 167 | 0.0 | 4.0 | 0.00 | 0.00 | 0.00 | 61 | 1020.1 |
| 20260903235112 | 85 | 167 | 0.0 | 4.0 | 0.00 | 0.00 | 0.00 | 61 | 1020.1 |
| 20260903235009 | 85 | 165 | 0.0 | 4.0 | 0.00 | 0.00 | 0.00 | 60 | 1020.1 |
| 20260903234910 | 85 | 165 | 1.0 | 4.0 | 0.00 | 0.00 | 0.00 | 61 | 1019.9 |
| 20260903234807 | 85 | 165 | 0.0 | 4.0 | 0.00 | 0.00 | 0.00 | 60 | 1020.1 |
| 20260903234706 | 85 | 165 | 0.0 | 4.0 | 0.00 | 0.00 | 0.00 | 61 | 1019.9 |
| 20260903234551 | 85 | 174 | 0.0 | 3.0 | 0.00 | 0.00 | 0.00 | 61 | 1019.9 |
| 20260903234451 | 85 | 88 | 0.0 | 3.0 | 0.00 | 0.00 | 0.00 | 60 | 1019.9 |
| 20260903234359 | 85 | 88 | 0.0 | 3.0 | 0.00 | 0.00 | 0.00 | 61 | 1019.9 |
| 20260903234249 | 85 | 88 | 1.0 | 3.0 | 0.00 | 0.00 | 0.00 | 61 | 1019.9 |
| 20260903234148 | 85 | 88 | 1.0 | 3.0 | 0.00 | 0.00 | 0.00 | 61 | 1019.9 |
| 20260903234051 | 85 | 87 | 1.0 | 3.0 | 0.00 | 0.00 | 0.00 | 61 | 1019.9 |
| 20260903233952 | 85 | 86 | 1.0 | 4.0 | 0.00 | 0.00 | 0.00 | 61 | 1019.9 |
| 20260903233846 | 85 | 188 | 1.0 | 4.0 | 0.00 | 0.00 | 0.00 | 60 | 1019.9 |
| 20260903233743 | 85 | 188 | 1.0 | 4.0 | 0.00 | 0.00 | 0.00 | 61 | 1019.8 |
| 20260903233641 | 85 | 186 | 1.0 | 4.0 | 0.00 | 0.00 | 0.00 | 61 | 1019.9 |
| 20260903233613 | 85 | 219 | 1.0 | 4.0 | 0.00 | 0.00 | 0.00 | 60 | 1019.9 |
| 20260903233602 | 85 | 186 | 1.0 | 4.0 | 0.00 | 0.00 | 0.00 | 61 | 1019.8 |
| 20260903233337 | 85 | 219 | 1.0 | 4.0 | 0.00 | 0.00 | 0.00 | 61 | 1019.9 |
| 20260903233237 | 86 | 219 | 1.0 | 4.0 | 0.00 | 0.00 | 0.00 | 61 | 1019.8 |
| 20260903233136 | 86 | 219 | 1.0 | 4.0 | 0.00 | 0.00 | 0.00 | 61 | 1019.9 |
| 20260903233021 | 86 | 192 | 1.0 | 4.0 | 0.00 | 0.00 | 0.00 | 60 | 1019.9 |
| 20260903232922 | 86 | 192 | 1.0 | 2.0 | 0.00 | 0.00 | 0.00 | 61 | 1019.9 |
| 20260903232821 | 86 | 192 | 1.0 | 2.0 | 0.00 | 0.00 | 0.00 | 61 | 1019.9 |
| 20260903232723 | 86 | 194 | 1.0 | 2.0 | 0.00 | 0.00 | 0.00 | 60 | 1019.9 |
| 20260903232652 | 86 | 187 | 1.0 | 6.0 | 0.00 | 0.00 | 0.00 | 60 | 1019.7 |
| 20260903232638 | 86 | 149 | 1.0 | 3.0 | 0.00 | 0.00 | 0.00 | 60 | 1019.7 |
| 20260903232420 | 86 | 187 | 1.0 | 6.0 | 0.00 | 0.00 | 0.00 | 60 | 1019.8 |
| 20260903232318 | 86 | 187 | 0.0 | 6.0 | 0.00 | 0.00 | 0.00 | 60 | 1019.7 |
| 20260903232215 | 87 | 205 | 1.0 | 6.0 | 0.00 | 0.00 | 0.00 | 59 | 1019.7 |
| 20260903232117 | 87 | 205 | 1.0 | 6.0 | 0.00 | 0.00 | 0.00 | 60 | 1019.7 |
| 20260903232012 | 87 | 205 | 1.0 | 6.0 | 0.00 | 0.00 | 0.00 | 60 | 1019.7 |
| 20260903231910 | 87 | 205 | 1.0 | 6.0 | 0.00 | 0.00 | 0.00 | 60 | 1019.7 |
| 20260903231814 | 87 | 205 | 1.0 | 6.0 | 0.00 | 0.00 | 0.00 | 59 | 1019.8 |
| 20260903231709 | 87 | 205 | 1.0 | 6.0 | 0.00 | 0.00 | 0.00 | 59 | 1019.8 |
| 20260903231613 | 87 | 209 | 1.0 | 6.0 | 0.00 | 0.00 | 0.00 | 59 | 1019.8 |
| 20260903231501 | 87 | 98 | 1.0 | 4.0 | 0.00 | 0.00 | 0.00 | 59 | 1019.7 |
| 20260903231400 | 87 | 98 | 1.0 | 4.0 | 0.00 | 0.00 | 0.00 | 59 | 1019.7 |
| 20260903231259 | 87 | 98 | 1.0 | 4.0 | 0.00 | 0.00 | 0.00 | 59 | 1019.7 |
| 20260903231159 | 87 | 98 | 1.0 | 4.0 | 0.00 | 0.00 | 0.00 | 59 | 1019.6 |
| 20260903231056 | 87 | 98 | 1.0 | 4.0 | 0.00 | 0.00 | 0.00 | 58 | 1019.7 |
| 20260903230951 | 88 | 158 | 1.0 | 4.0 | 0.00 | 0.00 | 0.00 | 58 | 1019.6 |
| 20260903230851 | 88 | 167 | 1.0 | 4.0 | 0.00 | 0.00 | 0.00 | 58 | 1019.6 |
| 20260903230748 | 88 | 130 | 1.0 | 4.0 | 0.00 | 0.00 | 0.00 | 58 | 1019.7 |
| 20260903230650 | 88 | 130 | 1.0 | 4.0 | 0.00 | 0.00 | 0.00 | 58 | 1019.7 |
| 20260903230550 | 88 | 169 | 1.0 | 4.0 | 0.00 | 0.00 | 0.00 | 58 | 1019.7 |
| 20260903230450 | 88 | 169 | 1.0 | 4.0 | 0.00 | 0.00 | 0.00 | 58 | 1019.7 |
| 20260903230421 | 88 | 155 | 1.0 | 3.0 | 0.00 | 0.00 | 0.00 | 58 | 1019.7 |
| 20260903230408 | 88 | 169 | 1.0 | 2.0 | 0.00 | 0.00 | 0.00 | 58 | 1019.7 |
| 20260903230148 | 88 | 173 | 1.0 | 3.0 | 0.00 | 0.00 | 0.00 | 57 | 1019.6 |
| 20260903230044 | 88 | 165 | 1.0 | 5.0 | 0.00 | 0.00 | 0.00 | 57 | 1019.6 |
| 20260903225933 | 88 | 165 | 1.0 | 5.0 | 0.00 | 0.00 | 0.00 | 57 | 1019.7 |
| 20260903225854 | 89 | 165 | 1.0 | 5.0 | 0.00 | 0.00 | 0.00 | 57 | 1019.6 |
| 20260903225848 | 89 | 165 | 1.0 | 5.0 | 0.00 | 0.00 | 0.00 | 57 | 1019.6 |
| 20260903225834 | 88 | 165 | 1.0 | 5.0 | 0.00 | 0.00 | 0.00 | 57 | 1019.6 |
| 20260903225813 | 88 | 165 | 1.0 | 5.0 | 0.00 | 0.00 | 0.00 | 56 | 1019.7 |
| 20260903225741 | 88 | 165 | 1.0 | 5.0 | 0.00 | 0.00 | 0.00 | 56 | 1019.6 |
| 20260903225332 | 89 | 167 | 0.0 | 5.0 | 0.00 | 0.00 | 0.00 | 55 | 1019.6 |
| 20260903225247 | 89 | 221 | 0.0 | 3.0 | 0.00 | 0.00 | 0.00 | 55 | 1019.6 |
| 20260903225233 | 89 | 173 | 1.0 | 5.0 | 0.00 | 0.00 | 0.00 | 55 | 1019.6 |
| 20260903225212 | 89 | 173 | 1.0 | 5.0 | 0.00 | 0.00 | 0.00 | 55 | 1019.5 |
| 20260903224943 | 89 | 221 | 1.0 | 3.0 | 0.00 | 0.00 | 0.00 | 55 | 1019.6 |
| 20260903224833 | 89 | 227 | 1.0 | 3.0 | 0.00 | 0.00 | 0.00 | 55 | 1019.5 |
| 20260903224734 | 89 | 227 | 1.0 | 3.0 | 0.00 | 0.00 | 0.00 | 55 | 1019.5 |
| 20260903224631 | 89 | 227 | 1.0 | 3.0 | 0.00 | 0.00 | 0.00 | 54 | 1019.5 |
| 20260903224528 | 89 | 227 | 1.0 | 3.0 | 0.00 | 0.00 | 0.00 | 53 | 1019.5 |
| 20260903224428 | 89 | 227 | 1.0 | 3.0 | 0.00 | 0.00 | 0.00 | 53 | 1019.5 |
| 20260903224329 | 89 | 227 | 1.0 | 3.0 | 0.00 | 0.00 | 0.00 | 54 | 1019.5 |
| 20260903224307 | 89 | 69 | 1.0 | 3.0 | 0.00 | 0.00 | 0.00 | 53 | 1019.5 |
| 20260903224255 | 89 | 71 | 1.0 | 3.0 | 0.00 | 0.00 | 0.00 | 53 | 1019.4 |
| 20260903224024 | 89 | 49 | 1.0 | 3.0 | 0.00 | 0.00 | 0.00 | 53 | 1019.4 |
| 20260903223928 | 89 | 49 | 1.0 | 3.0 | 0.00 | 0.00 | 0.00 | 52 | 1019.4 |
| 20260903223912 | 89 | 49 | 2.0 | 3.0 | 0.00 | 0.00 | 0.00 | 52 | 1019.5 |
| 20260903223905 | 89 | 49 | 1.0 | 3.0 | 0.00 | 0.00 | 0.00 | 52 | 1019.5 |
| 20260903223851 | 89 | 49 | 1.0 | 3.0 | 0.00 | 0.00 | 0.00 | 53 | 1019.5 |
| 20260903223825 | 89 | 49 | 1.0 | 3.0 | 0.00 | 0.00 | 0.00 | 52 | 1019.5 |
| 20260903223540 | 89 | 49 | 1.0 | 3.0 | 0.00 | 0.00 | 0.00 | 52 | 1019.4 |
| 20260903223527 | 89 | 49 | 1.0 | 3.0 | 0.00 | 0.00 | 0.00 | 52 | 1019.5 |
| 20260903223516 | 89 | 49 | 1.0 | 3.0 | 0.00 | 0.00 | 0.00 | 51 | 1019.5 |
| 20260903223511 | 89 | 49 | 1.0 | 3.0 | 0.00 | 0.00 | 0.00 | 52 | 1019.5 |
| 20260903223505 | 89 | 49 | 1.0 | 3.0 | 0.00 | 0.00 | 0.00 | 51 | 1019.5 |
| 20260903223457 | 89 | 49 | 1.0 | 3.0 | 0.00 | 0.00 | 0.00 | 51 | 1019.5 |
| 20260903223444 | 89 | 49 | 1.0 | 3.0 | 0.00 | 0.00 | 0.00 | 52 | 1019.5 |
| 20260903223420 | 89 | 49 | 1.0 | 3.0 | 0.00 | 0.00 | 0.00 | 51 | 1019.5 |
| 20260903223259 | 89 | 49 | 1.0 | 3.0 | 0.00 | 0.00 | 0.00 | 51 | 1019.5 |
| 20260903223240 | 89 | 49 | 1.0 | 3.0 | 0.00 | 0.00 | 0.00 | 51 | 1019.5 |
| 20260903223054 | 89 | 49 | 1.0 | 3.0 | 0.00 | 0.00 | 0.00 | 51 | 1019.5 |
| 20260903222901 | 89 | 49 | 1.0 | 3.0 | 0.00 | 0.00 | 0.00 | 52 | 1019.5 |
| 20260903222842 | 89 | 49 | 1.0 | 3.0 | 0.00 | 0.00 | 0.00 | 52 | 1019.5 |
| 20260903222433 | 89 | 49 | 1.0 | 3.0 | 0.00 | 0.00 | 0.00 | 51 | 1019.5 |
| 20260903222414 | 89 | 49 | 1.0 | 3.0 | 0.00 | 0.00 | 0.00 | 52 | 1019.5 |
| 20260903222106 | 89 | 49 | 1.0 | 3.0 | 0.00 | 0.00 | 0.00 | 51 | 1019.5 |
| 20260903222049 | 89 | 49 | 2.0 | 4.0 | 0.00 | 0.00 | 0.00 | 52 | 1019.5 |
| 20260903222032 | 89 | 49 | 2.0 | 3.0 | 0.00 | 0.00 | 0.00 | 52 | 1019.5 |
| 20260903221955 | 89 | 49 | 2.0 | 3.0 | 0.00 | 0.00 | 0.00 | 51 | 1019.5 |
| 20260903221607 | 89 | 49 | 2.0 | 4.0 | 0.00 | 0.00 | 0.00 | 52 | 1019.5 |
| 20260903221501 | 89 | 49 | 2.0 | 4.0 | 0.00 | 0.00 | 0.00 | 52 | 1019.4 |
| 20260903221401 | 89 | 49 | 2.0 | 4.0 | 0.00 | 0.00 | 0.00 | 53 | 1019.5 |
| 20260903221259 | 89 | 49 | 1.0 | 4.0 | 0.00 | 0.00 | 0.00 | 53 | 1019.4 |
| 20260903221235 | 89 | 49 | 1.0 | 4.0 | 0.00 | 0.00 | 0.00 | 52 | 1019.4 |
| 20260903221224 | 89 | 49 | 1.0 | 4.0 | 0.00 | 0.00 | 0.00 | 53 | 1019.4 |
| 20260903221154 | 89 | 49 | 1.0 | 4.0 | 0.00 | 0.00 | 0.00 | 51 | 1019.4 |
| 20260903221024 | 89 | 49 | 1.0 | 4.0 | 0.00 | 0.00 | 0.00 | 53 | 1019.4 |
| 20260903220759 | 89 | 49 | 1.0 | 4.0 | 0.00 | 0.00 | 0.00 | 52 | 1019.4 |
| 20260903220737 | 89 | 107 | 1.0 | 3.0 | 0.00 | 0.00 | 0.00 | 53 | 1019.4 |
| 20260903220731 | 89 | 107 | 2.0 | 3.0 | 0.00 | 0.00 | 0.00 | 52 | 1019.4 |
| 20260903220725 | 89 | 107 | 2.0 | 3.0 | 0.00 | 0.00 | 0.00 | 52 | 1019.4 |
| 20260903220710 | 89 | 107 | 1.0 | 3.0 | 0.00 | 0.00 | 0.00 | 52 | 1019.4 |
| 20260903220647 | 89 | 107 | 2.0 | 3.0 | 0.00 | 0.00 | 0.00 | 52 | 1019.4 |
| 20260903220625 | 89 | 107 | 1.0 | 3.0 | 0.00 | 0.00 | 0.00 | 52 | 1019.4 |
| 20260903220606 | 89 | 107 | 1.0 | 3.0 | 0.00 | 0.00 | 0.00 | 54 | 1019.4 |
| 20260903220345 | 89 | 107 | 2.0 | 3.0 | 0.00 | 0.00 | 0.00 | 53 | 1019.4 |
| 20260903220130 | 89 | 107 | 2.0 | 3.0 | 0.00 | 0.00 | 0.00 | 52 | 1019.4 |
| 20260903215732 | 89 | 107 | 2.0 | 3.0 | 0.00 | 0.00 | 0.00 | 52 | 1019.4 |
| 20260903215634 | 89 | 107 | 2.0 | 3.0 | 0.00 | 0.00 | 0.00 | 52 | 1019.5 |
| 20260903215536 | 89 | 107 | 2.0 | 3.0 | 0.00 | 0.00 | 0.00 | 51 | 1019.4 |
| 20260903215449 | 89 | 107 | 2.0 | 4.0 | 0.00 | 0.00 | 0.00 | 51 | 1019.5 |
| 20260903215430 | 89 | 107 | 2.0 | 3.0 | 0.00 | 0.00 | 0.00 | 52 | 1019.4 |
| 20260903215416 | 90 | 107 | 2.0 | 4.0 | 0.00 | 0.00 | 0.00 | 51 | 1019.5 |
| 20260903215343 | 89 | 107 | 2.0 | 4.0 | 0.00 | 0.00 | 0.00 | 51 | 1019.5 |
| 20260903215313 | 89 | 107 | 2.0 | 4.0 | 0.00 | 0.00 | 0.00 | 51 | 1019.5 |
| 20260903215028 | 90 | 107 | 2.0 | 4.0 | 0.00 | 0.00 | 0.00 | 51 | 1019.6 |
| 20260903214948 | 90 | 107 | 1.0 | 4.0 | 0.00 | 0.00 | 0.00 | 51 | 1019.6 |
| 20260903214927 | 90 | 107 | 2.0 | 4.0 | 0.00 | 0.00 | 0.00 | 50 | 1019.6 |
| 20260903214829 | 90 | 107 | 1.0 | 4.0 | 0.00 | 0.00 | 0.00 | 51 | 1019.6 |
| 20260903214722 | 90 | 107 | 1.0 | 4.0 | 0.00 | 0.00 | 0.00 | 50 | 1019.6 |
| 20260903214616 | 91 | 107 | 1.0 | 4.0 | 0.00 | 0.00 | 0.00 | 51 | 1019.7 |
| 20260903214604 | 91 | 107 | 1.0 | 4.0 | 0.00 | 0.00 | 0.00 | 50 | 1019.6 |
| 20260903214548 | 91 | 107 | 1.0 | 4.0 | 0.00 | 0.00 | 0.00 | 50 | 1019.7 |
| 20260903214316 | 91 | 107 | 1.0 | 4.0 | 0.00 | 0.00 | 0.00 | 50 | 1019.7 |
| 20260903214216 | 91 | 105 | 2.0 | 5.0 | 0.00 | 0.00 | 0.00 | 50 | 1019.7 |
| 20260903214127 | 91 | 96 | 2.0 | 5.0 | 0.00 | 0.00 | 0.00 | 50 | 1019.7 |
| 20260903214020 | 92 | 96 | 2.0 | 5.0 | 0.00 | 0.00 | 0.00 | 50 | 1019.7 |
| 20260903213913 | 92 | 96 | 2.0 | 6.0 | 0.00 | 0.00 | 0.00 | 50 | 1019.7 |
| 20260903213813 | 92 | 96 | 3.0 | 7.0 | 0.00 | 0.00 | 0.00 | 50 | 1019.8 |
| 20260903213751 | 92 | 94 | 4.0 | 8.0 | 0.00 | 0.00 | 0.00 | 50 | 1019.7 |
| 20260903213746 | 92 | 80 | 4.0 | 8.0 | 0.00 | 0.00 | 0.00 | 48 | 1019.8 |
| 20260903213737 | 92 | 96 | 3.0 | 7.0 | 0.00 | 0.00 | 0.00 | 50 | 1019.7 |
| 20260903213539 | 92 | 94 | 4.0 | 8.0 | 0.00 | 0.00 | 0.00 | 49 | 1019.8 |
| 20260903213509 | 92 | 117 | 4.0 | 8.0 | 0.00 | 0.00 | 0.00 | 49 | 1019.8 |
| 20260903213209 | 92 | 115 | 4.0 | 8.0 | 0.00 | 0.00 | 0.00 | 49 | 1019.8 |
| 20260903213112 | 92 | 119 | 4.0 | 8.0 | 0.00 | 0.00 | 0.00 | 49 | 1019.8 |
| 20260903213016 | 92 | 96 | 4.0 | 8.0 | 0.00 | 0.00 | 0.00 | 48 | 1019.8 |
| 20260903212934 | 93 | 97 | 3.0 | 8.0 | 0.00 | 0.00 | 0.00 | 49 | 1019.8 |
| 20260903212917 | 93 | 115 | 3.0 | 8.0 | 0.00 | 0.00 | 0.00 | 48 | 1019.8 |
| 20260903212854 | 93 | 96 | 3.0 | 7.0 | 0.00 | 0.00 | 0.00 | 48 | 1019.8 |
| 20260903212843 | 93 | 97 | 3.0 | 8.0 | 0.00 | 0.00 | 0.00 | 49 | 1019.8 |
| 20260903212606 | 93 | 101 | 3.0 | 7.0 | 0.00 | 0.00 | 0.00 | 49 | 1019.8 |
| 20260903212501 | 93 | 71 | 3.0 | 8.0 | 0.00 | 0.00 | 0.00 | 49 | 1019.8 |
| 20260903212401 | 93 | 147 | 3.0 | 8.0 | 0.00 | 0.00 | 0.00 | 49 | 1019.8 |
| 20260903212300 | 93 | 111 | 3.0 | 8.0 | 0.00 | 0.00 | 0.00 | 49 | 1019.8 |
| 20260903212158 | 93 | 98 | 3.0 | 8.0 | 0.00 | 0.00 | 0.00 | 49 | 1019.9 |
| 20260903212101 | 93 | 122 | 3.0 | 8.0 | 0.00 | 0.00 | 0.00 | 48 | 1019.9 |
| 20260903211959 | 93 | 121 | 3.0 | 8.0 | 0.00 | 0.00 | 0.00 | 49 | 1019.8 |
| 20260903211937 | 93 | 104 | 4.0 | 9.0 | 0.00 | 0.00 | 0.00 | 48 | 1019.8 |
| 20260903211912 | 93 | 75 | 3.0 | 8.0 | 0.00 | 0.00 | 0.00 | 49 | 1019.8 |
| 20260903211838 | 93 | 127 | 4.0 | 9.0 | 0.00 | 0.00 | 0.00 | 48 | 1019.8 |
| 20260903211554 | 93 | 104 | 4.0 | 9.0 | 0.00 | 0.00 | 0.00 | 48 | 1019.8 |
| 20260903211449 | 93 | 89 | 3.0 | 9.0 | 0.00 | 0.00 | 0.00 | 48 | 1019.8 |
| 20260903211343 | 93 | 164 | 3.0 | 9.0 | 0.00 | 0.00 | 0.00 | 48 | 1019.8 |
| 20260903211319 | 93 | 97 | 2.0 | 9.0 | 0.00 | 0.00 | 0.00 | 47 | 1019.8 |
| 20260903211259 | 93 | 115 | 3.0 | 9.0 | 0.00 | 0.00 | 0.00 | 48 | 1019.8 |
| 20260903211230 | 93 | 128 | 3.0 | 9.0 | 0.00 | 0.00 | 0.00 | 48 | 1019.8 |
| 20260903210949 | 93 | 80 | 2.0 | 9.0 | 0.00 | 0.00 | 0.00 | 47 | 1019.8 |
| 20260903210921 | 93 | 98 | 2.0 | 9.0 | 0.00 | 0.00 | 0.00 | 48 | 1019.8 |
| 20260903210903 | 93 | 94 | 2.0 | 9.0 | 0.00 | 0.00 | 0.00 | 47 | 1019.8 |
| 20260903210815 | 93 | 128 | 2.0 | 8.0 | 0.00 | 0.00 | 0.00 | 48 | 1019.8 |
| 20260903210551 | 93 | 83 | 2.0 | 9.0 | 0.00 | 0.00 | 0.00 | 48 | 1019.8 |
| 20260903210444 | 94 | 155 | 2.0 | 9.0 | 0.00 | 0.00 | 0.00 | 48 | 1019.8 |
| 20260903210438 | 94 | 150 | 1.0 | 9.0 | 0.00 | 0.00 | 0.00 | 47 | 1019.8 |
| 20260903210404 | 94 | 94 | 1.0 | 9.0 | 0.00 | 0.00 | 0.00 | 48 | 1019.8 |
| 20260903210327 | 94 | 132 | 1.0 | 9.0 | 0.00 | 0.00 | 0.00 | 49 | 1019.8 |
| 20260903210153 | 94 | 132 | 1.0 | 9.0 | 0.00 | 0.00 | 0.00 | 49 | 1019.8 |
| 20260903210113 | 94 | 117 | 1.0 | 3.0 | 0.00 | 0.00 | 0.00 | 50 | 1019.8 |
| 20260903210053 | 94 | 20 | 1.0 | 9.0 | 0.00 | 0.00 | 0.00 | 48 | 1019.8 |
| 20260903210018 | 94 | 21 | 1.0 | 9.0 | 0.00 | 0.00 | 0.00 | 48 | 1019.8 |
| 20260903205821 | 94 | 119 | 1.0 | 9.0 | 0.00 | 0.00 | 0.00 | 49 | 1019.8 |
| 20260903205536 | 94 | 117 | 1.0 | 3.0 | 0.00 | 0.00 | 0.00 | 49 | 1019.8 |
| 20260903205431 | 94 | 117 | 1.0 | 3.0 | 0.00 | 0.00 | 0.00 | 49 | 1019.8 |
| 20260903205330 | 94 | 117 | 1.0 | 3.0 | 0.00 | 0.00 | 0.00 | 49 | 1019.8 |
| 20260903205309 | 93 | 117 | 1.0 | 3.0 | 0.00 | 0.00 | 0.00 | 49 | 1019.8 |
| 20260903205234 | 93 | 117 | 1.0 | 3.0 | 0.00 | 0.00 | 0.00 | 49 | 1019.8 |
| 20260903205131 | 93 | 117 | 1.0 | 3.0 | 0.00 | 0.00 | 0.00 | 49 | 1019.8 |
| 20260903205037 | 93 | 117 | 1.0 | 4.0 | 0.00 | 0.00 | 0.00 | 50 | 1019.8 |
| 20260903204921 | 93 | 96 | 2.0 | 4.0 | 0.00 | 0.00 | 0.00 | 50 | 1019.8 |
| 20260903204832 | 93 | 94 | 2.0 | 6.0 | 0.00 | 0.00 | 0.00 | 50 | 1019.9 |
| 20260903204729 | 93 | 94 | 2.0 | 6.0 | 0.00 | 0.00 | 0.00 | 49 | 1019.9 |
| 20260903204627 | 93 | 94 | 2.0 | 6.0 | 0.00 | 0.00 | 0.00 | 49 | 1019.8 |
| 20260903204610 | 93 | 94 | 3.0 | 6.0 | 0.00 | 0.00 | 0.00 | 48 | 1019.9 |
| 20260903204535 | 93 | 94 | 3.0 | 6.0 | 0.00 | 0.00 | 0.00 | 48 | 1019.9 |
| 20260903204425 | 93 | 94 | 3.0 | 8.0 | 0.00 | 0.00 | 0.00 | 48 | 1020.1 |
| 20260903204320 | 93 | 92 | 3.0 | 8.0 | 0.00 | 0.00 | 0.00 | 49 | 1019.9 |
| 20260903204220 | 93 | 101 | 3.0 | 8.0 | 0.00 | 0.00 | 0.00 | 49 | 1019.9 |
| 20260903204121 | 93 | 101 | 3.0 | 8.0 | 0.00 | 0.00 | 0.00 | 49 | 1019.9 |
| 20260903204025 | 93 | 90 | 2.0 | 8.0 | 0.00 | 0.00 | 0.00 | 47 | 1019.9 |
| 20260903203948 | 94 | 117 | 2.0 | 8.0 | 0.00 | 0.00 | 0.00 | 48 | 1020.2 |
| 20260903203938 | 94 | 83 | 2.0 | 8.0 | 0.00 | 0.00 | 0.00 | 48 | 1020.2 |
| 20260903203718 | 93 | 116 | 2.0 | 8.0 | 0.00 | 0.00 | 0.00 | 47 | 1020.3 |
| 20260903203616 | 93 | 115 | 2.0 | 8.0 | 0.00 | 0.00 | 0.00 | 47 | 1020.2 |
| 20260903203517 | 93 | 115 | 2.0 | 9.0 | 0.00 | 0.00 | 0.00 | 47 | 1020.3 |
| 20260903203417 | 93 | 126 | 2.0 | 9.0 | 0.00 | 0.00 | 0.00 | 47 | 1020.3 |
| 20260903203315 | 93 | 82 | 2.0 | 9.0 | 0.00 | 0.00 | 0.00 | 46 | 1020.3 |
| 20260903203215 | 93 | 82 | 2.0 | 9.0 | 0.00 | 0.00 | 0.00 | 46 | 1020.3 |
| 20260903203115 | 93 | 82 | 2.0 | 9.0 | 0.00 | 0.00 | 0.00 | 46 | 1020.3 |
| 20260903203015 | 93 | 82 | 2.0 | 9.0 | 0.00 | 0.00 | 0.00 | 46 | 1020.3 |
| 20260903202918 | 93 | 72 | 2.0 | 9.0 | 0.00 | 0.00 | 0.00 | 45 | 1020.3 |
| 20260903202817 | 94 | 73 | 2.0 | 9.0 | 0.00 | 0.00 | 0.00 | 44 | 1020.3 |
| 20260903202701 | 94 | 154 | 2.0 | 9.0 | 0.00 | 0.00 | 0.00 | 45 | 1020.3 |
| 20260903202602 | 94 | 119 | 2.0 | 9.0 | 0.00 | 0.00 | 0.00 | 45 | 1020.3 |
| 20260903202503 | 94 | 94 | 2.0 | 7.0 | 0.00 | 0.00 | 0.00 | 46 | 1020.3 |
| 20260903202439 | 94 | 106 | 2.0 | 11.0 | 0.00 | 0.00 | 0.00 | 47 | 1020.3 |
| 20260903202426 | 94 | 109 | 2.0 | 11.0 | 0.00 | 0.00 | 0.00 | 47 | 1020.3 |
| 20260903202154 | 94 | 103 | 2.0 | 11.0 | 0.00 | 0.00 | 0.00 | 47 | 1020.3 |
| 20260903202054 | 94 | 98 | 2.0 | 11.0 | 0.00 | 0.00 | 0.00 | 47 | 1020.3 |
| 20260903201955 | 94 | 129 | 2.0 | 11.0 | 0.00 | 0.00 | 0.00 | 47 | 1020.3 |
| 20260903201929 | 94 | 138 | 1.0 | 11.0 | 0.00 | 0.00 | 0.00 | 47 | 1020.3 |
| 20260903201919 | 94 | 123 | 2.0 | 11.0 | 0.00 | 0.00 | 0.00 | 48 | 1020.3 |
| 20260903201648 | 94 | 136 | 1.0 | 11.0 | 0.00 | 0.00 | 0.00 | 48 | 1020.3 |
| 20260903201548 | 94 | 119 | 1.0 | 11.0 | 0.00 | 0.00 | 0.00 | 48 | 1020.4 |
| 20260903201451 | 94 | 119 | 1.0 | 11.0 | 0.00 | 0.00 | 0.00 | 47 | 1020.3 |
| 20260903201346 | 94 | 138 | 1.0 | 5.0 | 0.00 | 0.00 | 0.00 | 48 | 1020.3 |
| 20260903201321 | 93 | 140 | 1.0 | 5.0 | 0.00 | 0.00 | 0.00 | 48 | 1020.4 |
| 20260903201308 | 93 | 178 | 1.0 | 5.0 | 0.00 | 0.00 | 0.00 | 48 | 1020.4 |
| 20260903201121 | 93 | 103 | 1.0 | 5.0 | 0.00 | 0.00 | 0.00 | 49 | 1020.4 |
| 20260903201109 | 93 | 110 | 1.0 | 5.0 | 0.00 | 0.00 | 0.00 | 47 | 1020.3 |
| 20260903200846 | 93 | 187 | 2.0 | 8.0 | 0.00 | 0.00 | 0.00 | 48 | 1020.3 |
| 20260903200746 | 93 | 187 | 2.0 | 10.0 | 0.00 | 0.00 | 0.00 | 48 | 1020.4 |
| 20260903200737 | 92 | 233 | 2.0 | 10.0 | 0.00 | 0.00 | 0.00 | 52 | 1020.4 |
| 20260903200720 | 93 | 187 | 2.0 | 10.0 | 0.00 | 0.00 | 0.00 | 49 | 1020.4 |
| 20260903200559 | 93 | 205 | 2.0 | 10.0 | 0.00 | 0.00 | 0.00 | 51 | 1020.4 |
| 20260903200340 | 92 | 136 | 3.0 | 10.0 | 0.00 | 0.00 | 0.00 | 51 | 1020.4 |
| 20260903200240 | 92 | 136 | 3.0 | 10.0 | 0.00 | 0.00 | 0.00 | 50 | 1020.4 |
| 20260903200140 | 92 | 153 | 3.0 | 10.0 | 0.00 | 0.00 | 0.00 | 50 | 1020.4 |
| 20260903200039 | 92 | 153 | 3.0 | 10.0 | 0.00 | 0.00 | 0.00 | 49 | 1020.4 |
| 20260903200016 | 92 | 111 | 3.0 | 10.0 | 0.00 | 0.00 | 0.00 | 50 | 1020.5 |
| 20260903200002 | 92 | 103 | 3.0 | 10.0 | 0.00 | 0.00 | 0.00 | 50 | 1020.5 |
| 20260903195739 | 92 | 132 | 3.0 | 9.0 | 0.00 | 0.00 | 0.00 | 51 | 1020.5 |
| 20260903195640 | 92 | 147 | 3.0 | 9.0 | 0.00 | 0.00 | 0.00 | 50 | 1020.5 |
| 20260903195555 | 92 | 128 | 4.0 | 9.0 | 0.00 | 0.00 | 0.00 | 52 | 1020.6 |
| 20260903195551 | 92 | 86 | 3.0 | 9.0 | 0.00 | 0.00 | 0.00 | 52 | 1020.6 |
| 20260903195540 | 92 | 63 | 3.0 | 9.0 | 0.00 | 0.00 | 0.00 | 50 | 1020.5 |
| 20260903195533 | 92 | 86 | 3.0 | 9.0 | 0.00 | 0.00 | 0.00 | 52 | 1020.5 |
| 20260903195527 | 92 | 79 | 3.0 | 9.0 | 0.00 | 0.00 | 0.00 | 52 | 1020.6 |
| 20260903195513 | 92 | 95 | 3.0 | 9.0 | 0.00 | 0.00 | 0.00 | 50 | 1020.5 |
| 20260903195455 | 92 | 127 | 3.0 | 9.0 | 0.00 | 0.00 | 0.00 | 50 | 1020.6 |
| 20260903195159 | 92 | 86 | 3.0 | 9.0 | 0.00 | 0.00 | 0.00 | 52 | 1020.6 |
| 20260903195141 | 92 | 86 | 3.0 | 9.0 | 0.00 | 0.00 | 0.00 | 51 | 1020.5 |
| 20260903194637 | 92 | 119 | 4.0 | 9.0 | 0.00 | 0.00 | 0.00 | 52 | 1020.6 |
| 20260903194537 | 92 | 88 | 4.0 | 9.0 | 0.00 | 0.00 | 0.00 | 52 | 1020.6 |
| 20260903194437 | 92 | 101 | 4.0 | 9.0 | 0.00 | 0.00 | 0.00 | 52 | 1020.6 |
| 20260903194339 | 92 | 136 | 3.0 | 9.0 | 0.00 | 0.00 | 0.00 | 54 | 1020.6 |
| 20260903194233 | 92 | 89 | 3.0 | 9.0 | 0.00 | 0.00 | 0.00 | 54 | 1020.6 |
| 20260903194205 | 92 | 192 | 3.0 | 9.0 | 0.00 | 0.00 | 0.00 | 52 | 1020.6 |
| 20260903194153 | 92 | 192 | 3.0 | 9.0 | 0.00 | 0.00 | 0.00 | 54 | 1020.6 |
| 20260903193930 | 92 | 146 | 3.0 | 9.0 | 0.00 | 0.00 | 0.00 | 53 | 1020.6 |
| 20260903193828 | 92 | 142 | 3.0 | 9.0 | 0.00 | 0.00 | 0.00 | 52 | 1020.6 |
| 20260903193721 | 92 | 113 | 3.0 | 9.0 | 0.00 | 0.00 | 0.00 | 53 | 1020.6 |
| 20260903193622 | 92 | 119 | 3.0 | 9.0 | 0.00 | 0.00 | 0.00 | 53 | 1020.6 |
| 20260903193521 | 92 | 125 | 2.0 | 6.0 | 0.00 | 0.00 | 0.00 | 53 | 1020.6 |
| 20260903193421 | 92 | 119 | 2.0 | 6.0 | 0.00 | 0.00 | 0.00 | 52 | 1020.7 |
| 20260903193320 | 92 | 42 | 2.0 | 6.0 | 0.00 | 0.00 | 0.00 | 52 | 1020.7 |
| 20260903193234 | 92 | 78 | 2.0 | 5.0 | 0.00 | 0.00 | 0.00 | 52 | 1020.7 |
| 20260903193223 | 92 | 117 | 2.0 | 6.0 | 0.00 | 0.00 | 0.00 | 53 | 1020.7 |
| 20260903193216 | 93 | 82 | 2.0 | 5.0 | 0.00 | 0.00 | 0.00 | 52 | 1020.7 |
| 20260903193159 | 92 | 55 | 2.0 | 6.0 | 0.00 | 0.00 | 0.00 | 52 | 1020.7 |
| 20260903192820 | 92 | 82 | 2.0 | 5.0 | 0.00 | 0.00 | 0.00 | 52 | 1020.7 |
| 20260903192755 | 92 | 78 | 1.0 | 5.0 | 0.00 | 0.00 | 0.00 | 52 | 1020.6 |
| 20260903192744 | 92 | 47 | 1.0 | 5.0 | 0.00 | 0.00 | 0.00 | 53 | 1020.7 |
| 20260903192514 | 92 | 47 | 1.0 | 5.0 | 0.00 | 0.00 | 0.00 | 51 | 1020.7 |
| 20260903192417 | 92 | 47 | 1.0 | 5.0 | 0.00 | 0.00 | 0.00 | 53 | 1020.7 |
| 20260903192314 | 92 | 44 | 1.0 | 5.0 | 0.00 | 0.00 | 0.00 | 52 | 1020.7 |
| 20260903192224 | 92 | 69 | 2.0 | 8.0 | 0.00 | 0.00 | 0.00 | 54 | 1020.8 |
| 20260903192214 | 92 | 61 | 1.0 | 5.0 | 0.00 | 0.00 | 0.00 | 52 | 1020.8 |
| 20260903192145 | 92 | 69 | 2.0 | 8.0 | 0.00 | 0.00 | 0.00 | 54 | 1020.8 |
| 20260903192131 | 92 | 63 | 1.0 | 5.0 | 0.00 | 0.00 | 0.00 | 52 | 1020.8 |
| 20260903192103 | 92 | 110 | 2.0 | 8.0 | 0.00 | 0.00 | 0.00 | 53 | 1020.8 |
| 20260903191936 | 92 | 106 | 2.0 | 8.0 | 0.00 | 0.00 | 0.00 | 54 | 1020.8 |
| 20260903191711 | 92 | 69 | 2.0 | 8.0 | 0.00 | 0.00 | 0.00 | 53 | 1020.9 |
| 20260903191610 | 92 | 72 | 2.0 | 8.0 | 0.00 | 0.00 | 0.00 | 53 | 1020.8 |
| 20260903191511 | 92 | 73 | 3.0 | 8.0 | 0.00 | 0.00 | 0.00 | 53 | 1020.8 |
| 20260903191412 | 92 | 72 | 3.0 | 8.0 | 0.00 | 0.00 | 0.00 | 53 | 1020.9 |
| 20260903191310 | 92 | 72 | 3.0 | 8.0 | 0.00 | 0.00 | 0.00 | 53 | 1020.8 |
| 20260903191241 | 92 | 51 | 2.0 | 8.0 | 0.00 | 0.00 | 0.00 | 53 | 1021.0 |
| 20260903191233 | 92 | 73 | 3.0 | 8.0 | 0.00 | 0.00 | 0.00 | 52 | 1020.9 |
| 20260903191010 | 92 | 70 | 2.0 | 8.0 | 0.00 | 0.00 | 0.00 | 54 | 1021.0 |
| 20260903190928 | 92 | 79 | 2.0 | 8.0 | 0.00 | 0.00 | 0.00 | 53 | 1021.1 |
| 20260903190915 | 92 | 120 | 2.0 | 8.0 | 0.00 | 0.00 | 0.00 | 54 | 1021.0 |
| 20260903190907 | 92 | 76 | 2.0 | 8.0 | 0.00 | 0.00 | 0.00 | 54 | 1021.1 |
| 20260903190849 | 92 | 117 | 2.0 | 8.0 | 0.00 | 0.00 | 0.00 | 54 | 1021.1 |
| 20260903190520 | 92 | 90 | 2.0 | 6.0 | 0.00 | 0.00 | 0.00 | 55 | 1021.2 |
| 20260903190509 | 92 | 97 | 2.0 | 6.0 | 0.00 | 0.00 | 0.00 | 54 | 1021.1 |
| 20260903190502 | 91 | 90 | 2.0 | 6.0 | 0.00 | 0.00 | 0.00 | 55 | 1021.2 |
| 20260903190445 | 92 | 122 | 2.0 | 6.0 | 0.00 | 0.00 | 0.00 | 53 | 1021.1 |
| 20260903190059 | 91 | 106 | 2.0 | 6.0 | 0.00 | 0.00 | 0.00 | 55 | 1021.1 |
| 20260903185958 | 91 | 115 | 2.0 | 6.0 | 0.00 | 0.00 | 0.00 | 55 | 1021.2 |
| 20260903185859 | 91 | 174 | 2.0 | 6.0 | 0.00 | 0.00 | 0.00 | 56 | 1021.2 |
| 20260903185754 | 91 | 91 | 2.0 | 6.0 | 0.00 | 0.00 | 0.00 | 55 | 1021.2 |
| 20260903185654 | 91 | 40 | 2.0 | 6.0 | 0.00 | 0.00 | 0.00 | 55 | 1021.2 |
| 20260903185553 | 91 | 192 | 2.0 | 5.0 | 0.00 | 0.00 | 0.00 | 54 | 1021.2 |
| 20260903185454 | 90 | 108 | 2.0 | 5.0 | 0.00 | 0.00 | 0.00 | 54 | 1021.2 |
| 20260903185405 | 90 | 112 | 2.0 | 5.0 | 0.00 | 0.00 | 0.00 | 56 | 1021.2 |
| 20260903185252 | 90 | 94 | 2.0 | 5.0 | 0.00 | 0.00 | 0.00 | 55 | 1021.2 |
| 20260903185152 | 90 | 94 | 2.0 | 5.0 | 0.00 | 0.00 | 0.00 | 55 | 1021.2 |
| 20260903185056 | 90 | 94 | 2.0 | 5.0 | 0.00 | 0.00 | 0.00 | 55 | 1021.2 |
| 20260903184950 | 90 | 140 | 2.0 | 5.0 | 0.00 | 0.00 | 0.00 | 56 | 1021.2 |
| 20260903184852 | 90 | 92 | 2.0 | 5.0 | 0.00 | 0.00 | 0.00 | 55 | 1021.1 |
| 20260903184752 | 90 | 341 | 2.0 | 5.0 | 0.00 | 0.00 | 0.00 | 56 | 1021.2 |
| 20260903184650 | 90 | 342 | 2.0 | 5.0 | 0.00 | 0.00 | 0.00 | 55 | 1021.2 |
| 20260903184551 | 90 | 338 | 2.0 | 5.0 | 0.00 | 0.00 | 0.00 | 55 | 1021.2 |
| 20260903184450 | 90 | 340 | 1.0 | 4.0 | 0.00 | 0.00 | 0.00 | 56 | 1021.2 |
| 20260903184351 | 90 | 324 | 1.0 | 4.0 | 0.00 | 0.00 | 0.00 | 57 | 1021.2 |
| 20260903184251 | 90 | 206 | 1.0 | 4.0 | 0.00 | 0.00 | 0.00 | 56 | 1021.2 |
| 20260903184154 | 90 | 206 | 1.0 | 4.0 | 0.00 | 0.00 | 0.00 | 56 | 1021.2 |
| 20260903184051 | 89 | 202 | 1.0 | 4.0 | 0.00 | 0.00 | 0.00 | 56 | 1021.3 |
| 20260903183950 | 89 | 197 | 1.0 | 4.0 | 0.00 | 0.00 | 0.00 | 57 | 1021.2 |
| 20260903183852 | 89 | 296 | 1.0 | 3.0 | 0.00 | 0.00 | 0.00 | 57 | 1021.4 |
| 20260903183755 | 89 | 100 | 1.0 | 3.0 | 0.00 | 0.00 | 0.00 | 57 | 1021.3 |
| 20260903183652 | 89 | 100 | 1.0 | 3.0 | 0.00 | 0.00 | 0.00 | 56 | 1021.4 |
| 20260903183550 | 89 | 100 | 1.0 | 3.0 | 0.00 | 0.00 | 0.00 | 55 | 1021.4 |
| 20260903183450 | 89 | 100 | 1.0 | 3.0 | 0.00 | 0.00 | 0.00 | 55 | 1021.4 |
| 20260903183351 | 89 | 100 | 1.0 | 3.0 | 0.00 | 0.00 | 0.00 | 57 | 1021.4 |
| 20260903183252 | 89 | 100 | 1.0 | 3.0 | 0.00 | 0.00 | 0.00 | 57 | 1021.4 |
| 20260903183147 | 89 | 101 | 1.0 | 3.0 | 0.00 | 0.00 | 0.00 | 58 | 1021.4 |
| 20260903183047 | 89 | 109 | 1.0 | 5.0 | 0.00 | 0.00 | 0.00 | 56 | 1021.5 |
| 20260903183018 | 89 | 107 | 2.0 | 5.0 | 0.00 | 0.00 | 0.00 | 56 | 1021.4 |
| 20260903183007 | 89 | 109 | 2.0 | 5.0 | 0.00 | 0.00 | 0.00 | 56 | 1021.4 |
| 20260903182748 | 89 | 107 | 2.0 | 5.0 | 0.00 | 0.00 | 0.00 | 57 | 1021.5 |
| 20260903182722 | 89 | 349 | 2.0 | 5.0 | 0.00 | 0.00 | 0.00 | 56 | 1021.5 |
| 20260903182710 | 89 | 107 | 2.0 | 5.0 | 0.00 | 0.00 | 0.00 | 57 | 1021.5 |
| 20260903182449 | 89 | 349 | 2.0 | 5.0 | 0.00 | 0.00 | 0.00 | 58 | 1021.5 |
| 20260903182345 | 89 | 346 | 2.0 | 5.0 | 0.00 | 0.00 | 0.00 | 57 | 1021.5 |
| 20260903182245 | 89 | 344 | 2.0 | 5.0 | 0.00 | 0.00 | 0.00 | 58 | 1021.4 |
| 20260903182142 | 89 | 65 | 2.0 | 6.0 | 0.00 | 0.00 | 0.00 | 57 | 1021.5 |
| 20260903182045 | 89 | 306 | 2.0 | 6.0 | 0.00 | 0.00 | 0.00 | 56 | 1021.5 |
| 20260903182025 | 89 | 288 | 2.0 | 6.0 | 0.00 | 0.00 | 0.00 | 55 | 1021.5 |
| 20260903182020 | 89 | 298 | 2.0 | 6.0 | 0.00 | 0.00 | 0.00 | 55 | 1021.7 |
| 20260903181947 | 89 | 306 | 2.0 | 6.0 | 0.00 | 0.00 | 0.00 | 56 | 1021.5 |
| 20260903181812 | 89 | 313 | 2.0 | 6.0 | 0.00 | 0.00 | 0.00 | 56 | 1021.7 |
| 20260903181755 | 89 | 292 | 2.0 | 6.0 | 0.00 | 0.00 | 0.00 | 55 | 1021.5 |
| 20260903181507 | 89 | 288 | 2.0 | 6.0 | 0.00 | 0.00 | 0.00 | 56 | 1021.5 |
| 20260903181313 | 89 | 304 | 2.0 | 4.0 | 0.00 | 0.00 | 0.00 | 56 | 1021.7 |
| 20260903181303 | 89 | 291 | 2.0 | 6.0 | 0.00 | 0.00 | 0.00 | 57 | 1021.7 |
| 20260903181044 | 89 | 66 | 2.0 | 7.0 | 0.00 | 0.00 | 0.00 | 56 | 1021.8 |
| 20260903181029 | 89 | 16 | 3.0 | 8.0 | 0.00 | 0.00 | 0.00 | 56 | 1021.7 |
| 20260903181014 | 89 | 355 | 2.0 | 7.0 | 0.00 | 0.00 | 0.00 | 56 | 1021.8 |
| 20260903180745 | 90 | 16 | 3.0 | 10.0 | 0.00 | 0.00 | 0.00 | 56 | 1021.7 |
| 20260903180643 | 90 | 16 | 3.0 | 10.0 | 0.00 | 0.00 | 0.00 | 56 | 1021.7 |
| 20260903180542 | 90 | 11 | 3.0 | 10.0 | 0.00 | 0.00 | 0.00 | 56 | 1021.7 |
| 20260903180442 | 90 | 348 | 3.0 | 10.0 | 0.00 | 0.00 | 0.00 | 55 | 1021.7 |
| 20260903180342 | 90 | 347 | 3.0 | 10.0 | 0.00 | 0.00 | 0.00 | 55 | 1021.7 |
| 20260903180251 | 90 | 346 | 3.0 | 10.0 | 0.00 | 0.00 | 0.00 | 55 | 1021.7 |
| 20260903180216 | 91 | 13 | 3.0 | 10.0 | 0.00 | 0.00 | 0.00 | 54 | 1021.5 |
| 20260903180206 | 91 | 348 | 3.0 | 10.0 | 0.00 | 0.00 | 0.00 | 54 | 1021.7 |
| 20260903175944 | 91 | 22 | 3.0 | 10.0 | 0.00 | 0.00 | 0.00 | 54 | 1021.8 |
| 20260903175918 | 91 | 19 | 2.0 | 5.0 | 0.00 | 0.00 | 0.00 | 57 | 1021.7 |
| 20260903175906 | 91 | 5 | 2.0 | 10.0 | 0.00 | 0.00 | 0.00 | 56 | 1021.7 |
| 20260903175641 | 91 | 348 | 2.0 | 5.0 | 0.00 | 0.00 | 0.00 | 56 | 1021.7 |
| 20260903175543 | 91 | 350 | 3.0 | 11.0 | 0.00 | 0.00 | 0.00 | 56 | 1021.7 |
| 20260903175442 | 90 | 349 | 2.0 | 11.0 | 0.00 | 0.00 | 0.00 | 57 | 1021.8 |
| 20260903175343 | 90 | 67 | 2.0 | 11.0 | 0.00 | 0.00 | 0.00 | 56 | 1021.7 |
| 20260903175243 | 90 | 40 | 3.0 | 11.0 | 0.00 | 0.00 | 0.00 | 55 | 1021.7 |
| 20260903175219 | 91 | 247 | 3.0 | 11.0 | 0.00 | 0.00 | 0.00 | 56 | 1021.7 |
| 20260903175205 | 90 | 291 | 2.0 | 11.0 | 0.00 | 0.00 | 0.00 | 55 | 1021.8 |
| 20260903175014 | 90 | 269 | 3.0 | 11.0 | 0.00 | 0.00 | 0.00 | 57 | 1021.8 |
| 20260903175004 | 90 | 71 | 3.0 | 11.0 | 0.00 | 0.00 | 0.00 | 55 | 1021.7 |
| 20260903174743 | 90 | 292 | 3.0 | 11.0 | 0.00 | 0.00 | 0.00 | 56 | 1021.8 |
| 20260903174642 | 90 | 198 | 2.0 | 11.0 | 0.00 | 0.00 | 0.00 | 57 | 1021.7 |
| 20260903174622 | 90 | 196 | 2.0 | 6.0 | 0.00 | 0.00 | 0.00 | 55 | 1021.7 |
| 20260903174610 | 90 | 206 | 2.0 | 6.0 | 0.00 | 0.00 | 0.00 | 57 | 1021.8 |
| 20260903174342 | 90 | 86 | 2.0 | 6.0 | 0.00 | 0.00 | 0.00 | 54 | 1021.8 |
| 20260903174241 | 90 | 100 | 2.0 | 6.0 | 0.00 | 0.00 | 0.00 | 54 | 1021.8 |
| 20260903174138 | 90 | 118 | 2.0 | 6.0 | 0.00 | 0.00 | 0.00 | 54 | 1021.9 |
| 20260903174036 | 90 | 102 | 2.0 | 6.0 | 0.00 | 0.00 | 0.00 | 54 | 1021.9 |
| 20260903173927 | 90 | 115 | 2.0 | 6.0 | 0.00 | 0.00 | 0.00 | 55 | 1021.9 |
| 20260903173854 | 90 | 80 | 2.0 | 6.0 | 0.00 | 0.00 | 0.00 | 54 | 1021.9 |
| 20260903173846 | 90 | 108 | 2.0 | 6.0 | 0.00 | 0.00 | 0.00 | 55 | 1021.9 |
| 20260903173626 | 90 | 81 | 2.0 | 6.0 | 0.00 | 0.00 | 0.00 | 54 | 1021.9 |
| 20260903173526 | 90 | 71 | 2.0 | 7.0 | 0.00 | 0.00 | 0.00 | 54 | 1022.0 |
| 20260903173418 | 90 | 68 | 2.0 | 7.0 | 0.00 | 0.00 | 0.00 | 54 | 1022.0 |
| 20260903173318 | 90 | 240 | 3.0 | 7.0 | 0.00 | 0.00 | 0.00 | 56 | 1021.9 |
| 20260903173218 | 90 | 229 | 2.0 | 7.0 | 0.00 | 0.00 | 0.00 | 56 | 1022.0 |
| 20260903173119 | 90 | 232 | 3.0 | 7.0 | 0.00 | 0.00 | 0.00 | 57 | 1021.9 |
| 20260903173020 | 90 | 79 | 3.0 | 8.0 | 0.00 | 0.00 | 0.00 | 56 | 1021.9 |
| 20260903172914 | 89 | 85 | 3.0 | 8.0 | 0.00 | 0.00 | 0.00 | 56 | 1021.9 |
| 20260903172849 | 89 | 187 | 3.0 | 8.0 | 0.00 | 0.00 | 0.00 | 56 | 1021.9 |
| 20260903172838 | 89 | 190 | 3.0 | 8.0 | 0.00 | 0.00 | 0.00 | 59 | 1022.0 |
| 20260903172616 | 90 | 55 | 3.0 | 8.0 | 0.00 | 0.00 | 0.00 | 55 | 1022.0 |
| 20260903172526 | 89 | 113 | 3.0 | 8.0 | 0.00 | 0.00 | 0.00 | 58 | 1021.9 |
| 20260903172515 | 90 | 82 | 3.0 | 8.0 | 0.00 | 0.00 | 0.00 | 57 | 1022.0 |
| 20260903172507 | 89 | 65 | 3.0 | 8.0 | 0.00 | 0.00 | 0.00 | 57 | 1021.9 |
| 20260903172503 | 89 | 55 | 3.0 | 8.0 | 0.00 | 0.00 | 0.00 | 57 | 1022.0 |
| 20260903172443 | 90 | 69 | 3.0 | 8.0 | 0.00 | 0.00 | 0.00 | 57 | 1021.9 |
| 20260903172420 | 89 | 80 | 3.0 | 8.0 | 0.00 | 0.00 | 0.00 | 56 | 1021.9 |
| 20260903171905 | 89 | 54 | 3.0 | 9.0 | 0.00 | 0.00 | 0.00 | 57 | 1021.9 |
| 20260903171826 | 89 | 92 | 3.0 | 9.0 | 0.00 | 0.00 | 0.00 | 58 | 1022.1 |
| 20260903171818 | 90 | 73 | 3.0 | 9.0 | 0.00 | 0.00 | 0.00 | 56 | 1022.0 |
| 20260903171754 | 89 | 80 | 3.0 | 9.0 | 0.00 | 0.00 | 0.00 | 58 | 1022.0 |
| 20260903171623 | 89 | 63 | 3.0 | 9.0 | 0.00 | 0.00 | 0.00 | 58 | 1022.0 |
| 20260903171400 | 89 | 65 | 3.0 | 9.0 | 0.00 | 0.00 | 0.00 | 58 | 1022.0 |
| 20260903171300 | 89 | 65 | 3.0 | 9.0 | 0.00 | 0.00 | 0.00 | 59 | 1022.0 |
| 20260903171159 | 89 | 34 | 2.0 | 9.0 | 0.00 | 0.00 | 0.00 | 59 | 1022.0 |
| 20260903171059 | 89 | 104 | 3.0 | 9.0 | 0.00 | 0.00 | 0.00 | 61 | 1022.0 |
| 20260903171000 | 89 | 69 | 2.0 | 9.0 | 0.00 | 0.00 | 0.00 | 58 | 1022.0 |
| 20260903170857 | 89 | 71 | 2.0 | 8.0 | 0.00 | 0.00 | 0.00 | 58 | 1022.0 |
| 20260903170759 | 88 | 110 | 2.0 | 6.0 | 0.00 | 0.00 | 0.00 | 58 | 1022.0 |
| 20260903170700 | 88 | 121 | 2.0 | 6.0 | 0.00 | 0.00 | 0.00 | 57 | 1022.1 |
| 20260903170600 | 88 | 126 | 2.0 | 6.0 | 0.00 | 0.00 | 0.00 | 58 | 1022.0 |
| 20260903170500 | 88 | 119 | 2.0 | 6.0 | 0.00 | 0.00 | 0.00 | 56 | 1022.1 |
| 20260903170437 | 89 | 119 | 3.0 | 6.0 | 0.00 | 0.00 | 0.00 | 57 | 1022.0 |
| 20260903170424 | 89 | 119 | 2.0 | 6.0 | 0.00 | 0.00 | 0.00 | 57 | 1022.0 |
| 20260903170156 | 89 | 117 | 2.0 | 6.0 | 0.00 | 0.00 | 0.00 | 58 | 1022.1 |
| 20260903170055 | 89 | 86 | 2.0 | 5.0 | 0.00 | 0.00 | 0.00 | 57 | 1022.0 |
| 20260903170042 | 89 | 121 | 2.0 | 5.0 | 0.00 | 0.00 | 0.00 | 59 | 1022.1 |
| 20260903170023 | 89 | 82 | 2.0 | 5.0 | 0.00 | 0.00 | 0.00 | 58 | 1022.0 |
| 20260903165754 | 89 | 19 | 2.0 | 5.0 | 0.00 | 0.00 | 0.00 | 57 | 1022.1 |
| 20260903165655 | 88 | 17 | 2.0 | 5.0 | 0.00 | 0.00 | 0.00 | 57 | 1022.1 |
| 20260903165622 | 89 | 32 | 1.0 | 5.0 | 0.00 | 0.00 | 0.00 | 57 | 1022.1 |
| 20260903165612 | 89 | 17 | 2.0 | 5.0 | 0.00 | 0.00 | 0.00 | 56 | 1022.1 |
| 20260903165351 | 89 | 63 | 1.0 | 5.0 | 0.00 | 0.00 | 0.00 | 57 | 1022.2 |
| 20260903165329 | 89 | 70 | 1.0 | 4.0 | 0.00 | 0.00 | 0.00 | 57 | 1022.2 |
| 20260903165319 | 89 | 72 | 1.0 | 4.0 | 0.00 | 0.00 | 0.00 | 58 | 1022.2 |
| 20260903165052 | 89 | 70 | 2.0 | 4.0 | 0.00 | 0.00 | 0.00 | 57 | 1022.2 |
| 20260903165023 | 88 | 78 | 2.0 | 4.0 | 0.00 | 0.00 | 0.00 | 60 | 1022.3 |
| 20260903165012 | 89 | 73 | 2.0 | 4.0 | 0.00 | 0.00 | 0.00 | 59 | 1022.2 |
| 20260903164753 | 88 | 82 | 2.0 | 4.0 | 0.00 | 0.00 | 0.00 | 62 | 1022.3 |
| 20260903164652 | 87 | 82 | 2.0 | 5.0 | 0.00 | 0.00 | 0.00 | 59 | 1022.3 |
| 20260903164558 | 87 | 82 | 2.0 | 5.0 | 0.00 | 0.00 | 0.00 | 59 | 1022.4 |
| 20260903164449 | 87 | 80 | 2.0 | 5.0 | 0.00 | 0.00 | 0.00 | 60 | 1022.4 |
| 20260903164420 | 87 | 78 | 2.0 | 5.0 | 0.00 | 0.00 | 0.00 | 61 | 1022.5 |
| 20260903164411 | 87 | 78 | 2.0 | 5.0 | 0.00 | 0.00 | 0.00 | 62 | 1022.4 |
| 20260903164149 | 87 | 86 | 2.0 | 5.0 | 0.00 | 0.00 | 0.00 | 62 | 1022.4 |
| 20260903164048 | 86 | 80 | 1.0 | 5.0 | 0.00 | 0.00 | 0.00 | 62 | 1022.4 |
| 20260903164022 | 86 | 69 | 1.0 | 5.0 | 0.00 | 0.00 | 0.00 | 62 | 1022.5 |
| 20260903164009 | 86 | 69 | 1.0 | 5.0 | 0.00 | 0.00 | 0.00 | 61 | 1022.5 |
| 20260903163815 | 86 | 61 | 0.0 | 4.0 | 0.00 | 0.00 | 0.00 | 63 | 1022.4 |
| 20260903163805 | 86 | 68 | 1.0 | 5.0 | 0.00 | 0.00 | 0.00 | 62 | 1022.5 |
| 20260903163542 | 86 | 61 | 0.0 | 3.0 | 0.00 | 0.00 | 0.00 | 66 | 1022.6 |
| 20260903163440 | 85 | 339 | 0.0 | 0.0 | 0.00 | 0.00 | 0.00 | 64 | 1022.4 |
| 20260903163354 | 85 | 306 | 0.0 | 0.0 | 0.00 | 0.00 | 0.00 | 64 | 1022.4 |
| 20260903163349 | 85 | 306 | 0.0 | 0.0 | 0.00 | 0.00 | 0.00 | 64 | 1022.5 |
| 20260903163339 | 85 | 306 | 0.0 | 0.0 | 0.00 | 0.00 | 0.00 | 65 | 1022.4 |
| 20260903163316 | 85 | 306 | 0.0 | 0.0 | 0.00 | 0.00 | 0.00 | 63 | 1022.5 |
| 20260903162935 | 85 | 306 | 0.0 | 0.0 | 0.00 | 0.00 | 0.00 | 65 | 1022.4 |
| 20260903162834 | 85 | 306 | 0.0 | 0.0 | 0.00 | 0.00 | 0.00 | 66 | 1022.5 |
| 20260903162735 | 85 | 306 | 0.0 | 0.0 | 0.00 | 0.00 | 0.00 | 67 | 1022.5 |
| 20260903162728 | 85 | 306 | 0.0 | 2.0 | 0.00 | 0.00 | 0.00 | 65 | 1022.5 |
| 20260903162724 | 85 | 306 | 0.0 | 2.0 | 0.00 | 0.00 | 0.00 | 65 | 1022.5 |
| 20260903162719 | 85 | 306 | 0.0 | 2.0 | 0.00 | 0.00 | 0.00 | 65 | 1022.6 |
| 20260903162701 | 85 | 306 | 0.0 | 0.0 | 0.00 | 0.00 | 0.00 | 66 | 1022.6 |
| 20260903162641 | 85 | 306 | 0.0 | 1.0 | 0.00 | 0.00 | 0.00 | 66 | 1022.5 |
| 20260903162132 | 85 | 306 | 0.0 | 2.0 | 0.00 | 0.00 | 0.00 | 64 | 1022.6 |
| 20260903162031 | 85 | 306 | 1.0 | 2.0 | 0.00 | 0.00 | 0.00 | 64 | 1022.6 |
| 20260903161930 | 85 | 306 | 1.0 | 2.0 | 0.00 | 0.00 | 0.00 | 65 | 1022.6 |
| 20260903161853 | 85 | 306 | 1.0 | 2.0 | 0.00 | 0.00 | 0.00 | 66 | 1022.5 |
| 20260903161845 | 85 | 306 | 1.0 | 2.0 | 0.00 | 0.00 | 0.00 | 65 | 1022.5 |
| 20260903161627 | 85 | 306 | 1.0 | 2.0 | 0.00 | 0.00 | 0.00 | 63 | 1022.5 |
| 20260903161525 | 85 | 306 | 1.0 | 3.0 | 0.00 | 0.00 | 0.00 | 63 | 1022.5 |
| 20260903161422 | 85 | 306 | 1.0 | 3.0 | 0.00 | 0.00 | 0.00 | 64 | 1022.5 |
| 20260903161354 | 84 | 306 | 2.0 | 3.0 | 0.00 | 0.00 | 0.00 | 65 | 1022.6 |
| 20260903161343 | 85 | 306 | 1.0 | 3.0 | 0.00 | 0.00 | 0.00 | 65 | 1022.5 |
| 20260903161122 | 85 | 306 | 2.0 | 3.0 | 0.00 | 0.00 | 0.00 | 66 | 1022.6 |
| 20260903161023 | 84 | 306 | 2.0 | 3.0 | 0.00 | 0.00 | 0.00 | 63 | 1022.6 |
| 20260903160922 | 84 | 306 | 2.0 | 3.0 | 0.00 | 0.00 | 0.00 | 64 | 1022.5 |
| 20260903160822 | 84 | 306 | 2.0 | 3.0 | 0.00 | 0.00 | 0.00 | 63 | 1022.5 |
| 20260903160804 | 84 | 306 | 2.0 | 3.0 | 0.00 | 0.00 | 0.00 | 63 | 1022.5 |
| 20260903160751 | 84 | 306 | 2.0 | 3.0 | 0.00 | 0.00 | 0.00 | 64 | 1022.5 |
| 20260903160518 | 84 | 306 | 2.0 | 4.0 | 0.00 | 0.00 | 0.00 | 64 | 1022.6 |
| 20260903160418 | 84 | 306 | 2.0 | 4.0 | 0.00 | 0.00 | 0.00 | 63 | 1022.5 |
| 20260903160352 | 84 | 306 | 2.0 | 4.0 | 0.00 | 0.00 | 0.00 | 65 | 1022.6 |
| 20260903160339 | 84 | 306 | 2.0 | 4.0 | 0.00 | 0.00 | 0.00 | 65 | 1022.6 |
| 20260903160116 | 84 | 306 | 2.0 | 4.0 | 0.00 | 0.00 | 0.00 | 65 | 1022.6 |
| 20260903160010 | 84 | 306 | 2.0 | 4.0 | 0.00 | 0.00 | 0.00 | 65 | 1022.6 |
| 20260903155909 | 84 | 306 | 2.0 | 4.0 | 0.00 | 0.00 | 0.00 | 65 | 1022.6 |
| 20260903155809 | 84 | 306 | 2.0 | 4.0 | 0.00 | 0.00 | 0.00 | 65 | 1022.6 |
| 20260903155707 | 84 | 305 | 2.0 | 4.0 | 0.00 | 0.00 | 0.00 | 65 | 1022.6 |
| 20260903155608 | 84 | 305 | 2.0 | 4.0 | 0.00 | 0.00 | 0.00 | 65 | 1022.6 |
| 20260903155558 | 86 | 211 | 1.0 | 5.0 | 0.00 | 0.00 | 0.00 | 66 | 1022.6 |
| 20260903155554 | 85 | 303 | 2.0 | 3.0 | 0.00 | 0.00 | 0.00 | 67 | 1022.6 |
| 20260903155533 | 84 | 304 | 2.0 | 3.0 | 0.00 | 0.00 | 0.00 | 65 | 1022.6 |
| 20260903155517 | 84 | 304 | 2.0 | 3.0 | 0.00 | 0.00 | 0.00 | 66 | 1022.6 |
| 20260903155230 | 85 | 350 | 1.0 | 3.0 | 0.00 | 0.00 | 0.00 | 65 | 1022.6 |
| 20260903155226 | 85 | 350 | 1.0 | 3.0 | 0.00 | 0.00 | 0.00 | 64 | 1022.7 |
| 20260903155220 | 85 | 349 | 1.0 | 3.0 | 0.00 | 0.00 | 0.00 | 65 | 1022.6 |
| 20260903155208 | 85 | 303 | 1.0 | 3.0 | 0.00 | 0.00 | 0.00 | 66 | 1022.6 |
| 20260903155149 | 85 | 347 | 1.0 | 3.0 | 0.00 | 0.00 | 0.00 | 66 | 1022.6 |
| 20260903154904 | 85 | 350 | 1.0 | 3.0 | 0.00 | 0.00 | 0.00 | 64 | 1022.5 |
| 20260903154852 | 85 | 349 | 1.0 | 3.0 | 0.00 | 0.00 | 0.00 | 66 | 1022.6 |
| 20260903154825 | 85 | 349 | 1.0 | 3.0 | 0.00 | 0.00 | 0.00 | 66 | 1022.6 |
| 20260903154700 | 85 | 349 | 1.0 | 3.0 | 0.00 | 0.00 | 0.00 | 66 | 1022.6 |
| 20260903154644 | 85 | 350 | 1.0 | 3.0 | 0.00 | 0.00 | 0.00 | 66 | 1022.7 |
| 20260903154625 | 85 | 350 | 1.0 | 3.0 | 0.00 | 0.00 | 0.00 | 65 | 1022.6 |
| 20260903154133 | 85 | 240 | 1.0 | 2.0 | 0.00 | 0.00 | 0.00 | 63 | 1022.6 |
| 20260903154015 | 85 | 240 | 1.0 | 2.0 | 0.00 | 0.00 | 0.00 | 62 | 1022.6 |
| 20260903154009 | 85 | 240 | 1.0 | 4.0 | 0.00 | 0.00 | 0.00 | 63 | 1022.6 |
| 20260903153943 | 85 | 240 | 1.0 | 2.0 | 0.00 | 0.00 | 0.00 | 63 | 1022.7 |
| 20260903153934 | 86 | 241 | 1.0 | 4.0 | 0.00 | 0.00 | 0.00 | 62 | 1022.7 |
| 20260903153927 | 86 | 241 | 1.0 | 5.0 | 0.00 | 0.00 | 0.00 | 63 | 1022.7 |
| 20260903153921 | 86 | 240 | 1.0 | 5.0 | 0.00 | 0.00 | 0.00 | 63 | 1022.6 |
| 20260903153914 | 86 | 294 | 1.0 | 5.0 | 0.00 | 0.00 | 0.00 | 64 | 1022.7 |
| 20260903153908 | 86 | 111 | 1.0 | 5.0 | 0.00 | 0.00 | 0.00 | 64 | 1022.7 |
| 20260903153903 | 86 | 211 | 1.0 | 5.0 | 0.00 | 0.00 | 0.00 | 66 | 1022.6 |
| 20260903153851 | 85 | 240 | 1.0 | 2.0 | 0.00 | 0.00 | 0.00 | 62 | 1022.6 |
| 20260903153830 | 85 | 241 | 1.0 | 2.0 | 0.00 | 0.00 | 0.00 | 62 | 1022.6 |
| 20260903153637 | 85 | 240 | 1.0 | 4.0 | 0.00 | 0.00 | 0.00 | 62 | 1022.6 |
| 20260903153605 | 85 | 241 | 1.0 | 4.0 | 0.00 | 0.00 | 0.00 | 62 | 1022.6 |
| 20260903153527 | 85 | 240 | 1.0 | 4.0 | 0.00 | 0.00 | 0.00 | 63 | 1022.6 |
| 20260903153457 | 85 | 241 | 1.0 | 4.0 | 0.00 | 0.00 | 0.00 | 63 | 1022.6 |
| 20260903153249 | 86 | 241 | 1.0 | 4.0 | 0.00 | 0.00 | 0.00 | 63 | 1022.6 |
| 20260903153222 | 86 | 240 | 1.0 | 4.0 | 0.00 | 0.00 | 0.00 | 62 | 1022.6 |
| 20260903152605 | 86 | 294 | 1.0 | 5.0 | 0.00 | 0.00 | 0.00 | 63 | 1022.6 |
| 20260903152429 | 85 | 214 | 1.0 | 4.0 | 0.00 | 0.00 | 0.00 | 66 | 1022.6 |
| 20260903152424 | 85 | 204 | 1.0 | 5.0 | 0.00 | 0.00 | 0.00 | 66 | 1022.6 |
| 20260903152407 | 86 | 213 | 1.0 | 5.0 | 0.00 | 0.00 | 0.00 | 66 | 1022.6 |
| 20260903152224 | 86 | 111 | 1.0 | 5.0 | 0.00 | 0.00 | 0.00 | 65 | 1022.6 |